Wetterdaten: Montag, 09.01.2023
Datum Zeit Temp. Aussen Temp. o. S. Temp +5cm Feuchte Auss Luftdruck Regen Sonnenschein Regendauer Solar Windben Empfang
09.01.2023 00:00 8,1 C 7,2 C 3,9 C 93 % 994,6 hPa 0,0 l/m 0 min 2 min 0 W/m 12,9 km/h (3 Bft) 95,74 %
09.01.2023 00:02 8,1 C 7,2 C 3,9 C 93 % 994,6 hPa 0,0 l/m 0 min 2 min 0 W/m 16,1 km/h (3 Bft) 94,59 %
09.01.2023 00:04 8,1 C 7,2 C 3,9 C 93 % 994,6 hPa 0,0 l/m 0 min 2 min 0 W/m 16,1 km/h (3 Bft) 97,87 %
09.01.2023 00:07 8,1 C 7,2 C 3,9 C 93 % 994,6 hPa 0,0 l/m 0 min 3 min 0 W/m 16,1 km/h (3 Bft) 73,49 %
09.01.2023 00:08 8,0 C 7,2 C 3,9 C 94 % 994,6 hPa 0,0 l/m 0 min 1 min 0 W/m 22,5 km/h (4 Bft) 100,00 %
09.01.2023 00:12 8,0 C 7,2 C 3,9 C 94 % 994,6 hPa 0,2 l/m 0 min 4 min 0 W/m 16,1 km/h (3 Bft) 97,92 %
09.01.2023 00:14 8,0 C 7,2 C 3,9 C 94 % 994,7 hPa 0,0 l/m 0 min 2 min 0 W/m 19,3 km/h (3 Bft) 100,00 %
09.01.2023 00:16 8,0 C 7,2 C 3,9 C 94 % 994,9 hPa 0,2 l/m 0 min 2 min 0 W/m 12,9 km/h (3 Bft) 97,87 %
09.01.2023 00:18 8,0 C 7,2 C 3,9 C 94 % 994,9 hPa 0,0 l/m 0 min 2 min 0 W/m 9,7 km/h (2 Bft) 95,74 %
09.01.2023 00:20 8,0 C 6,7 C 3,9 C 94 % 994,9 hPa 0,0 l/m 0 min 2 min 0 W/m 6,4 km/h (2 Bft) 97,87 %
09.01.2023 00:22 7,9 C 6,7 C 3,9 C 94 % 995,0 hPa 0,0 l/m 0 min 2 min 0 W/m 3,2 km/h (1 Bft) 97,87 %
09.01.2023 00:24 7,9 C 6,7 C 3,9 C 94 % 994,9 hPa 0,2 l/m 0 min 2 min 0 W/m 6,4 km/h (2 Bft) 95,65 %
09.01.2023 00:26 7,9 C 6,7 C 3,3 C 94 % 994,9 hPa 0,2 l/m 0 min 2 min 0 W/m 6,4 km/h (2 Bft) 97,87 %
09.01.2023 00:28 7,9 C 6,7 C 3,3 C 94 % 994,9 hPa 0,0 l/m 0 min 2 min 0 W/m 6,4 km/h (2 Bft) 95,74 %
09.01.2023 00:30 7,8 C 6,7 C 3,3 C 94 % 994,9 hPa 0,0 l/m 0 min 2 min 0 W/m 6,4 km/h (2 Bft) 97,87 %
09.01.2023 00:32 7,8 C 6,7 C 3,3 C 94 % 994,9 hPa 0,0 l/m 0 min 2 min 0 W/m 22,5 km/h (4 Bft) 100,00 %
09.01.2023 00:34 7,8 C 6,7 C 3,3 C 94 % 994,8 hPa 0,0 l/m 0 min 2 min 0 W/m 6,4 km/h (2 Bft) 100,00 %
09.01.2023 00:36 7,8 C 6,7 C 3,3 C 94 % 994,8 hPa 0,2 l/m 0 min 2 min 0 W/m 12,9 km/h (3 Bft) 100,00 %
09.01.2023 00:38 7,8 C 6,7 C 3,3 C 94 % 994,9 hPa 0,0 l/m 0 min 2 min 0 W/m 9,7 km/h (2 Bft) 100,00 %
09.01.2023 00:40 7,8 C 6,7 C 3,3 C 94 % 994,9 hPa 0,0 l/m 0 min 2 min 0 W/m 12,9 km/h (3 Bft) 97,87 %
09.01.2023 00:42 7,8 C 6,7 C 3,9 C 94 % 994,9 hPa 0,2 l/m 0 min 2 min 0 W/m 16,1 km/h (3 Bft) 97,87 %
09.01.2023 00:44 7,7 C 6,7 C 3,9 C 94 % 994,8 hPa 0,0 l/m 0 min 2 min 0 W/m 9,7 km/h (2 Bft) 100,00 %
09.01.2023 00:46 7,7 C 6,7 C 3,9 C 95 % 994,8 hPa 0,0 l/m 0 min 2 min 0 W/m 16,1 km/h (3 Bft) 97,87 %
09.01.2023 00:48 7,7 C 6,7 C 3,9 C 95 % 994,9 hPa 0,0 l/m 0 min 2 min 0 W/m 12,9 km/h (3 Bft) 100,00 %
09.01.2023 00:50 7,8 C 6,7 C 3,9 C 95 % 994,8 hPa 0,0 l/m 0 min 2 min 0 W/m 16,1 km/h (3 Bft) 97,87 %
09.01.2023 00:52 7,8 C 6,7 C 3,9 C 95 % 994,9 hPa 0,0 l/m 0 min 2 min 0 W/m 16,1 km/h (3 Bft) 97,83 %
09.01.2023 00:54 7,8 C 6,7 C 3,9 C 95 % 994,8 hPa 0,0 l/m 0 min 2 min 0 W/m 12,9 km/h (3 Bft) 100,00 %
09.01.2023 00:56 7,8 C 6,7 C 3,9 C 95 % 994,9 hPa 0,2 l/m 0 min 2 min 0 W/m 12,9 km/h (3 Bft) 100,00 %
09.01.2023 00:58 7,7 C 6,7 C 3,9 C 95 % 994,9 hPa 0,0 l/m 0 min 2 min 0 W/m 12,9 km/h (3 Bft) 95,74 %
09.01.2023 01:00 7,7 C 6,7 C 3,9 C 95 % 994,9 hPa 0,2 l/m 0 min 2 min 0 W/m 12,9 km/h (3 Bft) 100,00 %
09.01.2023 01:02 7,7 C 6,7 C 3,9 C 95 % 994,9 hPa 0,0 l/m 0 min 2 min 0 W/m 16,1 km/h (3 Bft) 97,87 %
09.01.2023 01:04 7,7 C 6,7 C 3,9 C 95 % 994,9 hPa 0,0 l/m 0 min 2 min 0 W/m 22,5 km/h (4 Bft) 97,87 %
09.01.2023 01:06 7,7 C 6,7 C 3,9 C 95 % 994,9 hPa 0,0 l/m 0 min 2 min 0 W/m 29,0 km/h (5 Bft) 96,55 %
09.01.2023 01:08 7,7 C 6,7 C 3,3 C 95 % 994,9 hPa 0,0 l/m 0 min 2 min 0 W/m 22,5 km/h (4 Bft) 100,00 %
09.01.2023 01:10 7,7 C 6,7 C 3,3 C 95 % 994,9 hPa 0,0 l/m 0 min 2 min 0 W/m 19,3 km/h (3 Bft) 97,87 %
09.01.2023 01:12 7,7 C 6,7 C 3,3 C 95 % 994,9 hPa 0,2 l/m 0 min 2 min 0 W/m 25,7 km/h (4 Bft) 95,74 %
09.01.2023 01:14 7,7 C 6,7 C 3,3 C 95 % 995,0 hPa 0,0 l/m 0 min 2 min 0 W/m 22,5 km/h (4 Bft) 97,87 %
09.01.2023 01:16 7,6 C 6,7 C 3,3 C 95 % 994,9 hPa 0,0 l/m 0 min 2 min 0 W/m 29,0 km/h (5 Bft) 95,74 %
09.01.2023 01:18 7,6 C 6,7 C 3,3 C 95 % 994,9 hPa 0,2 l/m 0 min 2 min 0 W/m 19,3 km/h (3 Bft) 97,87 %
09.01.2023 01:20 7,6 C 6,7 C 3,3 C 95 % 994,9 hPa 0,0 l/m 0 min 2 min 0 W/m 19,3 km/h (3 Bft) 97,83 %
09.01.2023 01:22 7,6 C 6,7 C 3,3 C 95 % 995,0 hPa 0,0 l/m 0 min 2 min 0 W/m 32,2 km/h (5 Bft) 93,62 %
09.01.2023 01:24 7,6 C 6,7 C 3,3 C 95 % 994,9 hPa 0,0 l/m 0 min 2 min 0 W/m 19,3 km/h (3 Bft) 97,87 %
09.01.2023 01:26 7,5 C 6,7 C 3,3 C 95 % 994,9 hPa 0,0 l/m 0 min 2 min 0 W/m 29,0 km/h (5 Bft) 95,74 %
09.01.2023 01:28 7,5 C 6,7 C 3,3 C 95 % 994,9 hPa 0,0 l/m 0 min 0 min 0 W/m 16,1 km/h (3 Bft) 93,62 %
09.01.2023 01:30 7,5 C 6,7 C 3,3 C 95 % 994,8 hPa 0,0 l/m 0 min 2 min 0 W/m 12,9 km/h (3 Bft) 50,00 %
09.01.2023 01:32 7,5 C 6,7 C 3,3 C 95 % 994,9 hPa 0,0 l/m 0 min 0 min 0 W/m 19,3 km/h (3 Bft) 100,00 %
09.01.2023 01:34 7,5 C 6,7 C 3,3 C 95 % 994,9 hPa 0,0 l/m 0 min 0 min 0 W/m 12,9 km/h (3 Bft) 100,00 %
09.01.2023 01:36 7,4 C 6,7 C 3,3 C 95 % 995,0 hPa 0,0 l/m 0 min 0 min 0 W/m 19,3 km/h (3 Bft) 100,00 %
09.01.2023 01:38 7,4 C 6,7 C 3,3 C 95 % 995,0 hPa 0,0 l/m 0 min 0 min 0 W/m 16,1 km/h (3 Bft) 100,00 %
09.01.2023 01:40 7,4 C 6,1 C 3,3 C 95 % 995,1 hPa 0,0 l/m 0 min 0 min 0 W/m 12,9 km/h (3 Bft) 100,00 %
09.01.2023 01:42 7,4 C 6,1 C 3,3 C 95 % 995,0 hPa 0,0 l/m 0 min 0 min 0 W/m 19,3 km/h (3 Bft) 97,87 %
09.01.2023 01:44 7,4 C 6,1 C 3,3 C 95 % 995,0 hPa 0,0 l/m 0 min 0 min 0 W/m 16,1 km/h (3 Bft) 97,87 %
09.01.2023 01:46 7,4 C 6,1 C 3,3 C 95 % 995,0 hPa 0,0 l/m 0 min 0 min 0 W/m 22,5 km/h (4 Bft) 97,87 %
09.01.2023 01:48 7,3 C 6,1 C 3,3 C 95 % 995,1 hPa 0,0 l/m 0 min 0 min 0 W/m 16,1 km/h (3 Bft) 97,83 %
09.01.2023 01:50 7,3 C 6,1 C 3,3 C 95 % 995,2 hPa 0,0 l/m 0 min 0 min 0 W/m 22,5 km/h (4 Bft) 97,87 %
09.01.2023 01:52 7,3 C 6,1 C 3,3 C 95 % 995,2 hPa 0,0 l/m 0 min 0 min 0 W/m 19,3 km/h (3 Bft) 97,87 %
09.01.2023 01:54 7,3 C 6,1 C 3,3 C 95 % 995,4 hPa 0,0 l/m 0 min 0 min 0 W/m 25,7 km/h (4 Bft) 97,87 %
09.01.2023 01:56 7,3 C 6,1 C 3,3 C 95 % 995,3 hPa 0,0 l/m 0 min 0 min 0 W/m 12,9 km/h (3 Bft) 97,87 %
09.01.2023 01:58 7,3 C 6,1 C 3,3 C 95 % 995,3 hPa 0,0 l/m 0 min 0 min 0 W/m 12,9 km/h (3 Bft) 97,87 %
09.01.2023 02:00 7,3 C 6,1 C 3,3 C 95 % 995,3 hPa 0,0 l/m 0 min 0 min 0 W/m 19,3 km/h (3 Bft) 95,74 %
09.01.2023 02:02 7,3 C 6,1 C 3,3 C 95 % 995,3 hPa 0,0 l/m 0 min 0 min 0 W/m 12,9 km/h (3 Bft) 97,83 %
09.01.2023 02:04 7,3 C 6,1 C 3,3 C 95 % 995,3 hPa 0,0 l/m 0 min 0 min 0 W/m 16,1 km/h (3 Bft) 95,74 %
09.01.2023 02:06 7,3 C 6,1 C 3,3 C 95 % 995,3 hPa 0,0 l/m 0 min 0 min 0 W/m 19,3 km/h (3 Bft) 96,61 %
09.01.2023 02:08 7,2 C 6,1 C 3,3 C 95 % 995,3 hPa 0,0 l/m 0 min 0 min 0 W/m 9,7 km/h (2 Bft) 94,29 %
09.01.2023 02:10 7,2 C 6,1 C 3,3 C 95 % 995,3 hPa 0,0 l/m 0 min 0 min 0 W/m 9,7 km/h (2 Bft) 97,87 %
09.01.2023 02:12 7,2 C 6,1 C 3,3 C 95 % 995,3 hPa 0,0 l/m 0 min 0 min 0 W/m 25,7 km/h (4 Bft) 97,87 %
09.01.2023 02:14 7,2 C 6,1 C 3,3 C 95 % 995,3 hPa 0,0 l/m 0 min 0 min 0 W/m 12,9 km/h (3 Bft) 95,74 %
09.01.2023 02:16 7,2 C 6,1 C 3,3 C 95 % 995,4 hPa 0,0 l/m 0 min 0 min 0 W/m 6,4 km/h (2 Bft) 95,65 %
09.01.2023 02:18 7,2 C 6,1 C 3,3 C 95 % 995,4 hPa 0,0 l/m 0 min 0 min 0 W/m 6,4 km/h (2 Bft) 93,62 %
09.01.2023 02:20 7,2 C 6,1 C 3,3 C 95 % 995,4 hPa 0,0 l/m 0 min 0 min 0 W/m 16,1 km/h (3 Bft) 95,74 %
09.01.2023 02:22 7,2 C 6,1 C 3,3 C 95 % 995,4 hPa 0,0 l/m 0 min 0 min 0 W/m 6,4 km/h (2 Bft) 95,74 %
09.01.2023 02:24 7,2 C 6,1 C 3,3 C 95 % 995,4 hPa 0,0 l/m 0 min 0 min 0 W/m 9,7 km/h (2 Bft) 95,74 %
09.01.2023 02:26 7,2 C 6,1 C 3,3 C 95 % 995,5 hPa 0,0 l/m 0 min 0 min 0 W/m 16,1 km/h (3 Bft) 95,74 %
09.01.2023 02:28 7,2 C 6,1 C 3,3 C 95 % 995,5 hPa 0,0 l/m 0 min 0 min 0 W/m 12,9 km/h (3 Bft) 95,74 %
09.01.2023 02:30 7,2 C 6,1 C 3,3 C 95 % 995,5 hPa 0,0 l/m 0 min 0 min 0 W/m 12,9 km/h (3 Bft) 95,65 %
09.01.2023 02:32 7,1 C 6,1 C 3,3 C 95 % 995,4 hPa 0,0 l/m 0 min 0 min 0 W/m 12,9 km/h (3 Bft) 93,62 %
09.01.2023 02:34 7,1 C 6,1 C 3,3 C 95 % 995,5 hPa 0,0 l/m 0 min 0 min 0 W/m 12,9 km/h (3 Bft) 95,74 %
09.01.2023 02:36 7,1 C 6,1 C 3,3 C 95 % 995,4 hPa 0,0 l/m 0 min 0 min 0 W/m 9,7 km/h (2 Bft) 91,49 %
09.01.2023 02:38 7,1 C 6,1 C 3,3 C 95 % 995,5 hPa 0,0 l/m 0 min 0 min 0 W/m 6,4 km/h (2 Bft) 95,74 %
09.01.2023 02:40 7,1 C 6,1 C 3,3 C 95 % 995,5 hPa 0,0 l/m 0 min 0 min 0 W/m 12,9 km/h (3 Bft) 97,87 %
09.01.2023 02:42 7,1 C 6,1 C 3,3 C 95 % 995,5 hPa 0,0 l/m 0 min 0 min 0 W/m 22,5 km/h (4 Bft) 95,74 %
09.01.2023 02:44 7,1 C 6,1 C 3,3 C 95 % 995,5 hPa 0,0 l/m 0 min 0 min 0 W/m 6,4 km/h (2 Bft) 97,83 %
09.01.2023 02:46 7,1 C 6,1 C 3,3 C 95 % 995,5 hPa 0,0 l/m 0 min 0 min 0 W/m 9,7 km/h (2 Bft) 97,87 %
09.01.2023 02:48 7,1 C 6,1 C 3,3 C 95 % 995,5 hPa 0,0 l/m 0 min 0 min 0 W/m 19,3 km/h (3 Bft) 93,62 %
09.01.2023 02:50 7,1 C 6,1 C 2,8 C 95 % 995,5 hPa 0,0 l/m 0 min 0 min 0 W/m 16,1 km/h (3 Bft) 97,87 %
09.01.2023 02:52 7,1 C 6,1 C 2,8 C 95 % 995,5 hPa 0,0 l/m 0 min 0 min 0 W/m 12,9 km/h (3 Bft) 95,74 %
09.01.2023 02:54 7,0 C 6,1 C 2,8 C 95 % 995,6 hPa 0,0 l/m 0 min 0 min 0 W/m 6,4 km/h (2 Bft) 93,62 %
09.01.2023 02:56 7,0 C 6,1 C 2,8 C 95 % 995,5 hPa 0,0 l/m 0 min 0 min 0 W/m 12,9 km/h (3 Bft) 93,62 %
09.01.2023 02:58 6,9 C 6,1 C 2,8 C 95 % 995,5 hPa 0,0 l/m 0 min 0 min 0 W/m 9,7 km/h (2 Bft) 95,65 %
09.01.2023 03:00 6,9 C 6,1 C 2,8 C 95 % 995,6 hPa 0,0 l/m 0 min 0 min 0 W/m 6,4 km/h (2 Bft) 93,62 %
09.01.2023 03:02 6,9 C 6,1 C 2,8 C 95 % 995,6 hPa 0,0 l/m 0 min 0 min 0 W/m 16,1 km/h (3 Bft) 95,74 %
09.01.2023 03:04 6,9 C 6,1 C 2,8 C 95 % 995,7 hPa 0,0 l/m 0 min 0 min 0 W/m 12,9 km/h (3 Bft) 97,87 %
09.01.2023 03:06 6,8 C 6,1 C 2,8 C 95 % 995,7 hPa 0,0 l/m 0 min 0 min 0 W/m 6,4 km/h (2 Bft) 94,83 %
09.01.2023 03:08 6,8 C 6,1 C 2,8 C 95 % 995,7 hPa 0,0 l/m 0 min 0 min 0 W/m 9,7 km/h (2 Bft) 97,22 %
09.01.2023 03:10 6,8 C 6,1 C 2,8 C 95 % 995,8 hPa 0,0 l/m 0 min 0 min 0 W/m 16,1 km/h (3 Bft) 97,87 %
09.01.2023 03:12 6,8 C 6,1 C 2,8 C 95 % 995,8 hPa 0,0 l/m 0 min 0 min 0 W/m 9,7 km/h (2 Bft) 95,65 %
09.01.2023 03:14 6,8 C 6,1 C 2,8 C 95 % 995,8 hPa 0,0 l/m 0 min 0 min 0 W/m 12,9 km/h (3 Bft) 97,87 %
09.01.2023 03:16 6,8 C 6,1 C 2,8 C 95 % 995,8 hPa 0,0 l/m 0 min 0 min 0 W/m 12,9 km/h (3 Bft) 95,74 %
09.01.2023 03:18 6,7 C 5,6 C 2,8 C 95 % 995,8 hPa 0,0 l/m 0 min 0 min 0 W/m 9,7 km/h (2 Bft) 95,74 %
09.01.2023 03:20 6,7 C 5,6 C 2,8 C 95 % 995,8 hPa 0,0 l/m 0 min 0 min 0 W/m 12,9 km/h (3 Bft) 97,87 %
09.01.2023 03:22 6,7 C 5,6 C 2,8 C 94 % 995,9 hPa 0,0 l/m 0 min 0 min 0 W/m 16,1 km/h (3 Bft) 97,87 %
09.01.2023 03:24 6,7 C 5,6 C 2,8 C 94 % 995,9 hPa 0,0 l/m 0 min 0 min 0 W/m 16,1 km/h (3 Bft) 97,83 %
09.01.2023 03:26 6,6 C 5,6 C 2,8 C 94 % 995,9 hPa 0,0 l/m 0 min 0 min 0 W/m 12,9 km/h (3 Bft) 97,87 %
09.01.2023 03:28 6,6 C 5,6 C 2,8 C 94 % 995,9 hPa 0,0 l/m 0 min 0 min 0 W/m 16,1 km/h (3 Bft) 97,87 %
09.01.2023 03:30 6,6 C 5,6 C 2,8 C 94 % 995,8 hPa 0,0 l/m 0 min 0 min 0 W/m 9,7 km/h (2 Bft) 97,87 %
09.01.2023 03:32 6,6 C 5,6 C 2,8 C 94 % 995,8 hPa 0,0 l/m 0 min 0 min 0 W/m 9,7 km/h (2 Bft) 97,87 %
09.01.2023 03:34 6,6 C 5,6 C 2,8 C 94 % 995,9 hPa 0,0 l/m 0 min 0 min 0 W/m 9,7 km/h (2 Bft) 97,87 %
09.01.2023 03:39 6,5 C 5,6 C 2,2 C 94 % 995,9 hPa 0,0 l/m 0 min 0 min 0 W/m 12,9 km/h (3 Bft) 100,00 %
09.01.2023 03:40 6,5 C 5,6 C 2,2 C 94 % 995,9 hPa 0,0 l/m 0 min 0 min 0 W/m 6,4 km/h (2 Bft) 100,00 %
09.01.2023 03:42 6,5 C 5,6 C 2,2 C 94 % 996,0 hPa 0,0 l/m 0 min 0 min 0 W/m 12,9 km/h (3 Bft) 100,00 %
09.01.2023 03:44 6,5 C 5,6 C 2,2 C 94 % 996,0 hPa 0,0 l/m 0 min 0 min 0 W/m 9,7 km/h (2 Bft) 100,00 %
09.01.2023 03:46 6,5 C 5,6 C 2,2 C 94 % 996,0 hPa 0,0 l/m 0 min 0 min 0 W/m 9,7 km/h (2 Bft) 97,87 %
09.01.2023 03:48 6,5 C 5,6 C 2,8 C 94 % 996,0 hPa 0,0 l/m 0 min 0 min 0 W/m 25,7 km/h (4 Bft) 97,87 %
09.01.2023 03:50 6,5 C 5,6 C 2,8 C 95 % 996,0 hPa 0,0 l/m 0 min 0 min 0 W/m 16,1 km/h (3 Bft) 100,00 %
09.01.2023 03:52 6,5 C 5,6 C 2,8 C 95 % 995,9 hPa 0,0 l/m 0 min 0 min 0 W/m 12,9 km/h (3 Bft) 97,83 %
09.01.2023 03:54 6,5 C 6,1 C 2,8 C 95 % 995,9 hPa 0,0 l/m 0 min 0 min 0 W/m 16,1 km/h (3 Bft) 100,00 %
09.01.2023 03:56 6,6 C 6,1 C 2,8 C 95 % 995,9 hPa 0,0 l/m 0 min 0 min 0 W/m 29,0 km/h (5 Bft) 97,87 %
09.01.2023 03:58 6,6 C 6,1 C 2,8 C 95 % 996,0 hPa 0,0 l/m 0 min 0 min 0 W/m 16,1 km/h (3 Bft) 54,35 %
09.01.2023 04:00 6,6 C 6,1 C 2,8 C 95 % 996,0 hPa 0,0 l/m 0 min 0 min 0 W/m 22,5 km/h (4 Bft) 100,00 %
09.01.2023 04:02 6,6 C 6,1 C 2,8 C 95 % 996,0 hPa 0,0 l/m 0 min 0 min 0 W/m 16,1 km/h (3 Bft) 100,00 %
09.01.2023 04:04 6,6 C 6,1 C 2,8 C 95 % 996,0 hPa 0,0 l/m 0 min 0 min 0 W/m 16,1 km/h (3 Bft) 97,87 %
09.01.2023 04:06 6,6 C 5,6 C 2,8 C 94 % 996,0 hPa 0,0 l/m 0 min 0 min 0 W/m 16,1 km/h (3 Bft) 98,28 %
09.01.2023 04:08 6,6 C 5,6 C 2,8 C 94 % 996,0 hPa 0,0 l/m 0 min 0 min 0 W/m 16,1 km/h (3 Bft) 100,00 %
09.01.2023 04:10 6,6 C 5,6 C 2,8 C 94 % 996,0 hPa 0,0 l/m 0 min 0 min 0 W/m 16,1 km/h (3 Bft) 100,00 %
09.01.2023 04:12 6,5 C 5,6 C 2,8 C 94 % 995,9 hPa 0,0 l/m 0 min 0 min 0 W/m 12,9 km/h (3 Bft) 100,00 %
09.01.2023 04:14 6,5 C 5,6 C 2,8 C 94 % 995,8 hPa 0,0 l/m 0 min 0 min 0 W/m 16,1 km/h (3 Bft) 100,00 %
09.01.2023 04:16 6,5 C 5,6 C 2,2 C 94 % 995,9 hPa 0,0 l/m 0 min 0 min 0 W/m 12,9 km/h (3 Bft) 100,00 %
09.01.2023 04:18 6,5 C 5,6 C 2,2 C 94 % 995,9 hPa 0,0 l/m 0 min 0 min 0 W/m 19,3 km/h (3 Bft) 100,00 %
09.01.2023 04:20 6,4 C 5,6 C 2,2 C 94 % 995,9 hPa 0,0 l/m 0 min 0 min 0 W/m 12,9 km/h (3 Bft) 100,00 %
09.01.2023 04:22 6,4 C 5,6 C 2,2 C 94 % 995,9 hPa 0,0 l/m 0 min 0 min 0 W/m 12,9 km/h (3 Bft) 97,87 %
09.01.2023 04:24 6,4 C 5,6 C 2,2 C 94 % 995,9 hPa 0,0 l/m 0 min 0 min 0 W/m 22,5 km/h (4 Bft) 100,00 %
09.01.2023 04:26 6,3 C 5,6 C 2,2 C 94 % 996,0 hPa 0,0 l/m 0 min 0 min 0 W/m 19,3 km/h (3 Bft) 100,00 %
09.01.2023 04:28 6,3 C 5,6 C 2,2 C 94 % 996,0 hPa 0,0 l/m 0 min 0 min 0 W/m 19,3 km/h (3 Bft) 100,00 %
09.01.2023 04:30 6,3 C 5,6 C 2,2 C 94 % 996,0 hPa 0,0 l/m 0 min 0 min 0 W/m 19,3 km/h (3 Bft) 100,00 %
09.01.2023 04:32 6,3 C 5,6 C 2,2 C 94 % 996,0 hPa 0,0 l/m 0 min 0 min 0 W/m 9,7 km/h (2 Bft) 97,87 %
09.01.2023 04:34 6,3 C 5,6 C 2,2 C 94 % 996,1 hPa 0,0 l/m 0 min 0 min 0 W/m 19,3 km/h (3 Bft) 100,00 %
09.01.2023 04:36 6,3 C 5,6 C 2,2 C 94 % 996,1 hPa 0,0 l/m 0 min 0 min 0 W/m 32,2 km/h (5 Bft) 97,87 %
09.01.2023 04:38 6,3 C 5,6 C 2,2 C 94 % 996,1 hPa 0,0 l/m 0 min 0 min 0 W/m 29,0 km/h (5 Bft) 97,87 %
09.01.2023 04:40 6,3 C 5,6 C 2,2 C 94 % 996,1 hPa 0,0 l/m 0 min 0 min 0 W/m 22,5 km/h (4 Bft) 93,62 %
09.01.2023 04:42 6,3 C 5,6 C 2,2 C 94 % 996,1 hPa 0,0 l/m 0 min 0 min 0 W/m 16,1 km/h (3 Bft) 92,00 %
09.01.2023 04:44 6,3 C 5,6 C 2,2 C 94 % 996,0 hPa 0,0 l/m 0 min 0 min 0 W/m 12,9 km/h (3 Bft) 95,74 %
09.01.2023 04:46 6,2 C 5,6 C 2,2 C 94 % 996,1 hPa 0,0 l/m 0 min 0 min 0 W/m 16,1 km/h (3 Bft) 95,65 %
09.01.2023 04:48 6,2 C 5,6 C 2,2 C 94 % 996,1 hPa 0,0 l/m 0 min 0 min 0 W/m 12,9 km/h (3 Bft) 93,62 %
09.01.2023 04:50 6,2 C 5,6 C 2,2 C 94 % 996,0 hPa 0,0 l/m 0 min 0 min 0 W/m 29,0 km/h (5 Bft) 95,74 %
09.01.2023 04:52 6,2 C 5,6 C 2,2 C 94 % 996,1 hPa 0,0 l/m 0 min 0 min 0 W/m 22,5 km/h (4 Bft) 95,74 %
09.01.2023 04:54 6,2 C 5,6 C 2,2 C 94 % 996,1 hPa 0,0 l/m 0 min 0 min 0 W/m 19,3 km/h (3 Bft) 97,87 %
09.01.2023 04:56 6,2 C 5,6 C 2,2 C 93 % 996,2 hPa 0,0 l/m 0 min 0 min 0 W/m 12,9 km/h (3 Bft) 95,74 %
09.01.2023 04:58 6,2 C 5,6 C 2,2 C 93 % 996,1 hPa 0,0 l/m 0 min 0 min 0 W/m 22,5 km/h (4 Bft) 93,62 %
09.01.2023 05:00 6,2 C 5,0 C 2,2 C 93 % 996,1 hPa 0,0 l/m 0 min 0 min 0 W/m 16,1 km/h (3 Bft) 93,48 %
09.01.2023 05:02 6,1 C 5,0 C 2,2 C 93 % 996,2 hPa 0,0 l/m 0 min 0 min 0 W/m 12,9 km/h (3 Bft) 91,49 %
09.01.2023 05:04 6,1 C 5,0 C 2,2 C 93 % 996,2 hPa 0,0 l/m 0 min 0 min 0 W/m 12,9 km/h (3 Bft) 93,62 %
09.01.2023 05:06 6,1 C 5,0 C 2,2 C 93 % 996,2 hPa 0,0 l/m 0 min 0 min 0 W/m 12,9 km/h (3 Bft) 74,47 %
09.01.2023 05:08 6,1 C 5,0 C 2,2 C 93 % 996,3 hPa 0,0 l/m 0 min 0 min 0 W/m 9,7 km/h (2 Bft) 58,82 %
09.01.2023 05:10 6,1 C 5,0 C 2,2 C 93 % 996,2 hPa 0,0 l/m 0 min 0 min 0 W/m 16,1 km/h (3 Bft) 91,49 %
09.01.2023 05:12 6,0 C 5,0 C 2,2 C 93 % 996,3 hPa 0,0 l/m 0 min 0 min 0 W/m 19,3 km/h (3 Bft) 95,74 %
09.01.2023 05:14 6,0 C 5,0 C 1,7 C 93 % 996,3 hPa 0,0 l/m 0 min 0 min 0 W/m 12,9 km/h (3 Bft) 97,83 %
09.01.2023 05:16 5,9 C 5,0 C 1,7 C 93 % 996,3 hPa 0,0 l/m 0 min 0 min 0 W/m 9,7 km/h (2 Bft) 95,74 %
09.01.2023 05:18 5,9 C 5,0 C 1,7 C 93 % 996,3 hPa 0,0 l/m 0 min 0 min 0 W/m 19,3 km/h (3 Bft) 97,87 %
09.01.2023 05:20 5,9 C 5,0 C 1,7 C 93 % 996,4 hPa 0,0 l/m 0 min 0 min 0 W/m 16,1 km/h (3 Bft) 100,00 %
09.01.2023 05:22 5,9 C 5,0 C 1,7 C 93 % 996,3 hPa 0,0 l/m 0 min 0 min 0 W/m 22,5 km/h (4 Bft) 100,00 %
09.01.2023 05:24 5,9 C 5,0 C 1,7 C 93 % 996,4 hPa 0,0 l/m 0 min 0 min 0 W/m 19,3 km/h (3 Bft) 97,87 %
09.01.2023 05:26 5,9 C 5,0 C 1,7 C 93 % 996,3 hPa 0,0 l/m 0 min 0 min 0 W/m 22,5 km/h (4 Bft) 93,62 %
09.01.2023 05:28 5,8 C 5,0 C 1,7 C 93 % 996,3 hPa 0,0 l/m 0 min 0 min 0 W/m 16,1 km/h (3 Bft) 95,74 %
09.01.2023 05:30 5,8 C 5,0 C 1,7 C 93 % 996,3 hPa 0,0 l/m 0 min 0 min 0 W/m 19,3 km/h (3 Bft) 97,83 %
09.01.2023 05:32 5,8 C 5,0 C 1,7 C 93 % 996,4 hPa 0,0 l/m 0 min 0 min 0 W/m 16,1 km/h (3 Bft) 97,87 %
09.01.2023 05:34 5,8 C 5,0 C 1,7 C 93 % 996,4 hPa 0,0 l/m 0 min 0 min 0 W/m 16,1 km/h (3 Bft) 97,87 %
09.01.2023 05:36 5,8 C 5,0 C 1,7 C 93 % 996,5 hPa 0,0 l/m 0 min 0 min 0 W/m 19,3 km/h (3 Bft) 97,87 %
09.01.2023 05:38 5,8 C 5,0 C 1,7 C 93 % 996,5 hPa 0,0 l/m 0 min 0 min 0 W/m 19,3 km/h (3 Bft) 95,74 %
09.01.2023 05:40 5,8 C 5,0 C 1,7 C 93 % 996,5 hPa 0,0 l/m 0 min 0 min 0 W/m 16,1 km/h (3 Bft) 97,87 %
09.01.2023 05:42 5,8 C 5,0 C 1,7 C 93 % 996,4 hPa 0,0 l/m 0 min 0 min 0 W/m 19,3 km/h (3 Bft) 97,87 %
09.01.2023 05:44 5,8 C 5,0 C 1,7 C 93 % 996,5 hPa 0,0 l/m 0 min 0 min 0 W/m 16,1 km/h (3 Bft) 93,48 %
09.01.2023 05:46 5,8 C 5,0 C 1,7 C 93 % 996,5 hPa 0,0 l/m 0 min 0 min 0 W/m 12,9 km/h (3 Bft) 97,87 %
09.01.2023 05:48 5,8 C 5,0 C 1,7 C 93 % 996,6 hPa 0,0 l/m 0 min 0 min 0 W/m 19,3 km/h (3 Bft) 97,87 %
09.01.2023 05:50 5,8 C 5,0 C 1,7 C 93 % 996,6 hPa 0,0 l/m 0 min 0 min 0 W/m 16,1 km/h (3 Bft) 97,87 %
09.01.2023 05:52 5,8 C 5,0 C 1,7 C 93 % 996,6 hPa 0,0 l/m 0 min 0 min 0 W/m 22,5 km/h (4 Bft) 95,74 %
09.01.2023 05:54 5,8 C 5,6 C 1,7 C 93 % 996,6 hPa 0,0 l/m 0 min 0 min 0 W/m 25,7 km/h (4 Bft) 100,00 %
09.01.2023 05:56 5,8 C 5,6 C 1,7 C 93 % 996,6 hPa 0,0 l/m 0 min 0 min 0 W/m 19,3 km/h (3 Bft) 97,83 %
09.01.2023 05:58 5,8 C 5,6 C 1,7 C 93 % 996,6 hPa 0,0 l/m 0 min 0 min 0 W/m 16,1 km/h (3 Bft) 100,00 %
09.01.2023 06:00 5,8 C 5,6 C 2,2 C 93 % 996,7 hPa 0,0 l/m 0 min 0 min 0 W/m 12,9 km/h (3 Bft) 100,00 %
09.01.2023 06:02 5,9 C 5,6 C 2,2 C 93 % 996,7 hPa 0,0 l/m 0 min 0 min 0 W/m 16,1 km/h (3 Bft) 100,00 %
09.01.2023 06:04 5,9 C 5,6 C 2,2 C 93 % 996,7 hPa 0,0 l/m 0 min 0 min 0 W/m 32,2 km/h (5 Bft) 97,87 %
09.01.2023 06:08 5,9 C 5,6 C 2,2 C 93 % 996,6 hPa 0,0 l/m 0 min 0 min 0 W/m 19,3 km/h (3 Bft) 98,95 %
09.01.2023 06:10 5,9 C 5,6 C 2,2 C 93 % 996,7 hPa 0,0 l/m 0 min 0 min 0 W/m 16,1 km/h (3 Bft) 100,00 %
09.01.2023 06:12 6,0 C 5,6 C 2,2 C 93 % 996,7 hPa 0,0 l/m 0 min 0 min 0 W/m 12,9 km/h (3 Bft) 67,39 %
09.01.2023 06:14 6,0 C 5,6 C 2,2 C 93 % 996,7 hPa 0,0 l/m 0 min 0 min 0 W/m 19,3 km/h (3 Bft) 86,96 %
09.01.2023 06:16 6,1 C 5,6 C 2,2 C 93 % 996,7 hPa 0,0 l/m 0 min 0 min 0 W/m 25,7 km/h (4 Bft) 100,00 %
09.01.2023 06:18 6,1 C 5,6 C 2,2 C 93 % 996,7 hPa 0,0 l/m 0 min 0 min 0 W/m 16,1 km/h (3 Bft) 100,00 %
09.01.2023 06:20 6,2 C 5,6 C 2,2 C 92 % 996,7 hPa 0,0 l/m 0 min 0 min 0 W/m 25,7 km/h (4 Bft) 100,00 %
09.01.2023 06:22 6,2 C 5,6 C 2,2 C 92 % 996,7 hPa 0,0 l/m 0 min 0 min 0 W/m 19,3 km/h (3 Bft) 100,00 %
09.01.2023 06:24 6,2 C 5,6 C 2,2 C 92 % 996,7 hPa 0,0 l/m 0 min 0 min 0 W/m 22,5 km/h (4 Bft) 97,87 %
09.01.2023 06:26 6,3 C 5,6 C 2,2 C 92 % 996,7 hPa 0,0 l/m 0 min 0 min 0 W/m 19,3 km/h (3 Bft) 100,00 %
09.01.2023 06:28 6,3 C 6,1 C 2,2 C 92 % 996,8 hPa 0,0 l/m 0 min 0 min 0 W/m 29,0 km/h (5 Bft) 97,87 %
09.01.2023 06:30 6,3 C 6,1 C 2,2 C 92 % 996,7 hPa 0,0 l/m 0 min 0 min 0 W/m 19,3 km/h (3 Bft) 97,87 %
09.01.2023 06:32 6,3 C 5,6 C 2,2 C 91 % 996,8 hPa 0,0 l/m 0 min 0 min 0 W/m 12,9 km/h (3 Bft) 97,87 %
09.01.2023 06:34 6,3 C 5,6 C 2,2 C 91 % 996,9 hPa 0,0 l/m 0 min 0 min 0 W/m 12,9 km/h (3 Bft) 97,87 %
09.01.2023 06:36 6,4 C 5,6 C 2,2 C 91 % 996,9 hPa 0,0 l/m 0 min 0 min 0 W/m 16,1 km/h (3 Bft) 97,87 %
09.01.2023 06:38 6,4 C 5,6 C 2,2 C 91 % 996,9 hPa 0,0 l/m 0 min 0 min 0 W/m 16,1 km/h (3 Bft) 97,87 %
09.01.2023 06:40 6,4 C 5,6 C 2,2 C 91 % 996,9 hPa 0,0 l/m 0 min 0 min 0 W/m 16,1 km/h (3 Bft) 95,65 %
09.01.2023 06:42 6,4 C 5,6 C 2,2 C 91 % 996,9 hPa 0,0 l/m 0 min 0 min 0 W/m 22,5 km/h (4 Bft) 97,87 %
09.01.2023 06:44 6,4 C 5,6 C 2,2 C 91 % 996,9 hPa 0,0 l/m 0 min 0 min 0 W/m 16,1 km/h (3 Bft) 97,87 %
09.01.2023 06:46 6,4 C 5,6 C 2,2 C 91 % 996,9 hPa 0,0 l/m 0 min 0 min 0 W/m 12,9 km/h (3 Bft) 97,87 %
09.01.2023 06:48 6,4 C 5,6 C 2,2 C 91 % 996,9 hPa 0,0 l/m 0 min 0 min 0 W/m 16,1 km/h (3 Bft) 95,74 %
09.01.2023 06:50 6,4 C 5,6 C 2,2 C 91 % 996,9 hPa 0,0 l/m 0 min 0 min 0 W/m 19,3 km/h (3 Bft) 93,62 %
09.01.2023 06:52 6,4 C 5,6 C 2,2 C 91 % 996,9 hPa 0,0 l/m 0 min 0 min 0 W/m 16,1 km/h (3 Bft) 97,87 %
09.01.2023 06:54 6,5 C 5,6 C 2,2 C 91 % 996,9 hPa 0,0 l/m 0 min 0 min 0 W/m 12,9 km/h (3 Bft) 95,74 %
09.01.2023 06:56 6,5 C 5,6 C 2,2 C 91 % 996,9 hPa 0,0 l/m 0 min 0 min 0 W/m 6,4 km/h (2 Bft) 93,48 %
09.01.2023 06:58 6,5 C 5,6 C 2,2 C 91 % 996,9 hPa 0,0 l/m 0 min 0 min 0 W/m 9,7 km/h (2 Bft) 95,74 %
09.01.2023 07:00 6,5 C 5,6 C 2,2 C 91 % 996,9 hPa 0,0 l/m 0 min 0 min 0 W/m 12,9 km/h (3 Bft) 97,87 %
09.01.2023 07:02 6,5 C 5,6 C 2,8 C 91 % 996,9 hPa 0,0 l/m 0 min 0 min 0 W/m 16,1 km/h (3 Bft) 97,87 %
09.01.2023 07:04 6,5 C 5,6 C 2,8 C 91 % 996,9 hPa 0,0 l/m 0 min 0 min 0 W/m 16,1 km/h (3 Bft) 97,87 %
09.01.2023 07:06 6,5 C 5,6 C 2,8 C 91 % 997,0 hPa 0,0 l/m 0 min 0 min 0 W/m 16,1 km/h (3 Bft) 97,87 %
09.01.2023 07:08 6,5 C 5,6 C 2,8 C 91 % 997,0 hPa 0,0 l/m 0 min 0 min 0 W/m 16,1 km/h (3 Bft) 94,29 %
09.01.2023 07:10 6,5 C 6,1 C 2,8 C 91 % 996,9 hPa 0,0 l/m 0 min 0 min 0 W/m 6,4 km/h (2 Bft) 97,87 %
09.01.2023 07:12 6,5 C 6,1 C 2,8 C 91 % 997,0 hPa 0,0 l/m 0 min 0 min 0 W/m 16,1 km/h (3 Bft) 95,74 %
09.01.2023 07:14 6,5 C 6,1 C 2,8 C 91 % 997,0 hPa 0,0 l/m 0 min 0 min 0 W/m 9,7 km/h (2 Bft) 95,74 %
09.01.2023 07:16 6,5 C 6,1 C 2,8 C 91 % 996,9 hPa 0,0 l/m 0 min 0 min 0 W/m 16,1 km/h (3 Bft) 97,87 %
09.01.2023 07:18 6,5 C 6,1 C 2,8 C 91 % 996,9 hPa 0,0 l/m 0 min 0 min 0 W/m 9,7 km/h (2 Bft) 97,83 %
09.01.2023 07:20 6,6 C 6,1 C 2,8 C 91 % 996,9 hPa 0,0 l/m 0 min 0 min 0 W/m 22,5 km/h (4 Bft) 95,74 %
09.01.2023 07:22 6,6 C 6,1 C 2,8 C 91 % 996,9 hPa 0,0 l/m 0 min 0 min 0 W/m 9,7 km/h (2 Bft) 97,87 %
09.01.2023 07:24 6,6 C 6,1 C 2,8 C 91 % 997,0 hPa 0,0 l/m 0 min 0 min 0 W/m 22,5 km/h (4 Bft) 97,87 %
09.01.2023 07:26 6,6 C 6,1 C 2,8 C 91 % 997,0 hPa 0,0 l/m 0 min 0 min 0 W/m 9,7 km/h (2 Bft) 97,87 %
09.01.2023 07:28 6,6 C 6,1 C 2,8 C 91 % 997,0 hPa 0,0 l/m 0 min 0 min 0 W/m 19,3 km/h (3 Bft) 97,87 %
09.01.2023 07:30 6,6 C 6,1 C 2,8 C 91 % 997,0 hPa 0,0 l/m 0 min 0 min 0 W/m 12,9 km/h (3 Bft) 95,74 %
09.01.2023 07:32 6,6 C 6,1 C 2,8 C 91 % 997,0 hPa 0,0 l/m 0 min 0 min 0 W/m 12,9 km/h (3 Bft) 97,83 %
09.01.2023 07:34 6,7 C 6,1 C 2,8 C 91 % 997,0 hPa 0,0 l/m 0 min 0 min 0 W/m 9,7 km/h (2 Bft) 97,87 %
09.01.2023 07:36 6,7 C 6,1 C 2,8 C 91 % 997,0 hPa 0,0 l/m 0 min 0 min 0 W/m 12,9 km/h (3 Bft) 97,87 %
09.01.2023 07:38 6,7 C 6,1 C 2,8 C 91 % 996,9 hPa 0,0 l/m 0 min 0 min 0 W/m 9,7 km/h (2 Bft) 100,00 %
09.01.2023 07:40 6,7 C 6,1 C 2,8 C 91 % 996,9 hPa 0,0 l/m 0 min 0 min 0 W/m 12,9 km/h (3 Bft) 100,00 %
09.01.2023 07:42 6,7 C 6,1 C 2,8 C 91 % 997,0 hPa 0,0 l/m 0 min 0 min 0 W/m 25,7 km/h (4 Bft) 100,00 %
09.01.2023 07:44 6,7 C 6,1 C 2,8 C 91 % 996,9 hPa 0,0 l/m 0 min 0 min 0 W/m 16,1 km/h (3 Bft) 100,00 %
09.01.2023 07:46 6,7 C 6,1 C 2,8 C 91 % 996,9 hPa 0,0 l/m 0 min 0 min 0 W/m 12,9 km/h (3 Bft) 100,00 %
09.01.2023 07:48 6,7 C 6,1 C 2,8 C 91 % 997,0 hPa 0,0 l/m 0 min 0 min 0 W/m 22,5 km/h (4 Bft) 95,65 %
09.01.2023 07:50 6,8 C 6,1 C 2,8 C 91 % 997,0 hPa 0,0 l/m 0 min 0 min 0 W/m 16,1 km/h (3 Bft) 97,87 %
09.01.2023 07:52 6,8 C 6,1 C 2,8 C 91 % 996,9 hPa 0,0 l/m 0 min 0 min 0 W/m 6,4 km/h (2 Bft) 100,00 %
09.01.2023 07:54 6,8 C 6,1 C 2,8 C 91 % 996,9 hPa 0,0 l/m 0 min 0 min 0 W/m 19,3 km/h (3 Bft) 100,00 %
09.01.2023 07:56 6,8 C 6,1 C 3,3 C 90 % 996,9 hPa 0,0 l/m 0 min 0 min 0 W/m 16,1 km/h (3 Bft) 100,00 %
09.01.2023 07:58 6,8 C 6,1 C 3,3 C 90 % 996,9 hPa 0,0 l/m 0 min 0 min 0 W/m 19,3 km/h (3 Bft) 100,00 %
09.01.2023 08:00 6,8 C 6,1 C 3,3 C 90 % 996,8 hPa 0,0 l/m 0 min 0 min 0 W/m 19,3 km/h (3 Bft) 100,00 %
09.01.2023 08:02 6,9 C 6,1 C 3,3 C 90 % 996,8 hPa 0,0 l/m 0 min 0 min 0 W/m 16,1 km/h (3 Bft) 100,00 %
09.01.2023 08:04 6,9 C 6,1 C 3,3 C 90 % 996,9 hPa 0,0 l/m 0 min 0 min 0 W/m 12,9 km/h (3 Bft) 100,00 %
09.01.2023 08:06 6,9 C 6,7 C 3,3 C 90 % 996,9 hPa 0,0 l/m 0 min 0 min 0 W/m 12,9 km/h (3 Bft) 96,92 %
09.01.2023 08:08 6,9 C 6,7 C 3,3 C 90 % 996,9 hPa 0,0 l/m 0 min 0 min 0 W/m 16,1 km/h (3 Bft) 96,55 %
09.01.2023 08:10 6,9 C 6,7 C 3,3 C 90 % 996,9 hPa 0,0 l/m 0 min 0 min 0 W/m 19,3 km/h (3 Bft) 97,87 %
09.01.2023 08:12 7,0 C 6,7 C 3,3 C 90 % 996,9 hPa 0,0 l/m 0 min 0 min 0 W/m 35,4 km/h (5 Bft) 97,87 %
09.01.2023 08:14 7,1 C 6,7 C 3,3 C 90 % 996,8 hPa 0,0 l/m 0 min 0 min 0 W/m 25,7 km/h (4 Bft) 97,87 %
09.01.2023 08:16 7,1 C 6,7 C 3,3 C 89 % 996,8 hPa 0,0 l/m 0 min 0 min 0 W/m 22,5 km/h (4 Bft) 97,87 %
09.01.2023 08:18 7,1 C 6,7 C 3,3 C 89 % 996,9 hPa 0,0 l/m 0 min 0 min 0 W/m 29,0 km/h (5 Bft) 97,83 %
09.01.2023 08:20 7,2 C 6,7 C 3,3 C 89 % 996,9 hPa 0,0 l/m 0 min 0 min 0 W/m 32,2 km/h (5 Bft) 97,87 %
09.01.2023 08:22 7,2 C 6,7 C 3,3 C 89 % 996,8 hPa 0,0 l/m 0 min 0 min 0 W/m 22,5 km/h (4 Bft) 97,87 %
09.01.2023 08:24 7,2 C 6,7 C 3,3 C 89 % 996,7 hPa 0,0 l/m 0 min 0 min 0 W/m 25,7 km/h (4 Bft) 93,62 %
09.01.2023 08:26 7,2 C 6,7 C 3,3 C 89 % 996,8 hPa 0,0 l/m 0 min 2 min 0 W/m 29,0 km/h (5 Bft) 95,74 %
09.01.2023 08:28 7,2 C 6,7 C 3,3 C 88 % 996,7 hPa 0,0 l/m 0 min 0 min 0 W/m 16,1 km/h (3 Bft) 95,74 %
09.01.2023 08:30 7,3 C 6,7 C 3,3 C 88 % 996,8 hPa 0,0 l/m 0 min 0 min 0 W/m 29,0 km/h (5 Bft) 95,74 %
09.01.2023 08:32 7,3 C 6,7 C 3,3 C 88 % 996,9 hPa 0,0 l/m 0 min 2 min 0 W/m 22,5 km/h (4 Bft) 95,74 %
09.01.2023 08:34 7,3 C 6,7 C 3,3 C 88 % 996,9 hPa 0,0 l/m 0 min 2 min 0 W/m 32,2 km/h (5 Bft) 95,65 %
09.01.2023 08:36 7,3 C 6,7 C 3,3 C 88 % 996,9 hPa 0,0 l/m 0 min 2 min 0 W/m 32,2 km/h (5 Bft) 95,74 %
09.01.2023 08:38 7,3 C 6,7 C 3,3 C 88 % 996,9 hPa 0,0 l/m 0 min 2 min 0 W/m 19,3 km/h (3 Bft) 93,62 %
09.01.2023 08:40 7,3 C 6,7 C 3,3 C 88 % 997,0 hPa 0,0 l/m 0 min 2 min 0 W/m 22,5 km/h (4 Bft) 93,62 %
09.01.2023 08:42 7,3 C 6,7 C 3,3 C 88 % 996,9 hPa 0,0 l/m 0 min 2 min 0 W/m 38,6 km/h (5 Bft) 76,60 %
09.01.2023 08:44 7,3 C 6,7 C 3,3 C 88 % 997,0 hPa 0,0 l/m 0 min 2 min 0 W/m 35,4 km/h (5 Bft) 71,43 %
09.01.2023 08:46 7,4 C 6,7 C 3,3 C 88 % 997,0 hPa 0,0 l/m 0 min 2 min 0 W/m 25,7 km/h (4 Bft) 95,74 %
09.01.2023 08:48 7,4 C 6,7 C 3,3 C 88 % 997,0 hPa 0,0 l/m 0 min 2 min 0 W/m 35,4 km/h (5 Bft) 95,65 %
09.01.2023 08:50 7,4 C 6,7 C 3,3 C 88 % 996,9 hPa 0,0 l/m 0 min 2 min 0 W/m 22,5 km/h (4 Bft) 95,74 %
09.01.2023 08:52 7,4 C 6,7 C 3,3 C 88 % 997,0 hPa 0,0 l/m 0 min 0 min 0 W/m 25,7 km/h (4 Bft) 95,74 %
09.01.2023 08:54 7,4 C 6,7 C 3,3 C 88 % 997,0 hPa 0,0 l/m 0 min 0 min 0 W/m 29,0 km/h (5 Bft) 97,87 %
09.01.2023 08:56 7,4 C 6,7 C 3,3 C 88 % 997,0 hPa 0,0 l/m 0 min 0 min 0 W/m 29,0 km/h (5 Bft) 95,74 %
09.01.2023 08:58 7,4 C 6,7 C 3,3 C 88 % 997,0 hPa 0,0 l/m 0 min 0 min 0 W/m 16,1 km/h (3 Bft) 97,87 %
09.01.2023 09:00 7,5 C 6,7 C 3,9 C 88 % 997,0 hPa 0,0 l/m 0 min 0 min 0 W/m 22,5 km/h (4 Bft) 100,00 %
09.01.2023 09:02 7,5 C 6,7 C 3,9 C 88 % 997,0 hPa 0,0 l/m 0 min 0 min 0 W/m 29,0 km/h (5 Bft) 97,83 %
09.01.2023 09:04 7,5 C 6,7 C 3,9 C 87 % 997,0 hPa 0,0 l/m 0 min 0 min 5 W/m 29,0 km/h (5 Bft) 97,87 %
09.01.2023 09:06 7,5 C 6,7 C 3,9 C 87 % 997,0 hPa 0,0 l/m 0 min 0 min 10 W/m 16,1 km/h (3 Bft) 100,00 %
09.01.2023 09:08 7,6 C 6,7 C 3,9 C 87 % 997,0 hPa 0,0 l/m 0 min 2 min 12 W/m 22,5 km/h (4 Bft) 97,14 %
09.01.2023 09:10 7,6 C 7,2 C 3,9 C 87 % 997,0 hPa 0,0 l/m 0 min 2 min 12 W/m 25,7 km/h (4 Bft) 97,87 %
09.01.2023 09:12 7,6 C 7,2 C 3,9 C 87 % 997,0 hPa 0,0 l/m 0 min 2 min 11 W/m 25,7 km/h (4 Bft) 97,87 %
09.01.2023 09:14 7,6 C 7,2 C 3,9 C 87 % 997,1 hPa 0,0 l/m 0 min 2 min 8 W/m 29,0 km/h (5 Bft) 100,00 %
09.01.2023 09:16 7,6 C 7,2 C 3,9 C 87 % 997,2 hPa 0,0 l/m 0 min 2 min 9 W/m 29,0 km/h (5 Bft) 100,00 %
09.01.2023 09:18 7,6 C 7,2 C 3,9 C 87 % 997,2 hPa 0,0 l/m 0 min 2 min 13 W/m 38,6 km/h (5 Bft) 97,83 %
09.01.2023 09:20 7,7 C 7,2 C 3,9 C 87 % 997,2 hPa 0,0 l/m 0 min 2 min 12 W/m 29,0 km/h (5 Bft) 100,00 %
09.01.2023 09:22 7,7 C 7,2 C 3,9 C 87 % 997,2 hPa 0,0 l/m 0 min 2 min 13 W/m 32,2 km/h (5 Bft) 100,00 %
09.01.2023 09:24 7,7 C 7,2 C 3,9 C 87 % 997,3 hPa 0,0 l/m 0 min 0 min 16 W/m 29,0 km/h (5 Bft) 97,87 %
09.01.2023 09:26 7,7 C 7,2 C 3,9 C 87 % 997,3 hPa 0,0 l/m 0 min 0 min 14 W/m 22,5 km/h (4 Bft) 97,87 %
09.01.2023 09:28 7,7 C 7,2 C 3,9 C 87 % 997,3 hPa 0,0 l/m 0 min 0 min 13 W/m 29,0 km/h (5 Bft) 95,74 %
09.01.2023 09:30 7,7 C 7,2 C 3,9 C 87 % 997,3 hPa 0,0 l/m 0 min 2 min 18 W/m 25,7 km/h (4 Bft) 97,83 %
09.01.2023 09:32 7,7 C 7,2 C 3,9 C 87 % 997,3 hPa 0,0 l/m 0 min 2 min 19 W/m 29,0 km/h (5 Bft) 95,74 %
09.01.2023 09:34 7,8 C 7,2 C 3,9 C 87 % 997,4 hPa 0,0 l/m 0 min 2 min 15 W/m 29,0 km/h (5 Bft) 97,87 %
09.01.2023 09:36 7,8 C 7,2 C 3,9 C 86 % 997,4 hPa 0,0 l/m 0 min 2 min 18 W/m 25,7 km/h (4 Bft) 97,87 %
09.01.2023 09:38 7,8 C 7,2 C 3,9 C 86 % 997,5 hPa 0,0 l/m 0 min 0 min 18 W/m 25,7 km/h (4 Bft) 95,74 %
09.01.2023 09:40 7,8 C 7,2 C 3,9 C 86 % 997,5 hPa 0,0 l/m 0 min 0 min 12 W/m 25,7 km/h (4 Bft) 97,87 %
09.01.2023 09:42 7,8 C 7,2 C 3,9 C 86 % 997,5 hPa 0,0 l/m 0 min 0 min 9 W/m 22,5 km/h (4 Bft) 97,87 %
09.01.2023 09:44 7,8 C 7,2 C 3,9 C 86 % 997,6 hPa 0,0 l/m 0 min 0 min 9 W/m 25,7 km/h (4 Bft) 97,83 %
09.01.2023 09:46 7,8 C 7,2 C 3,9 C 86 % 997,6 hPa 0,0 l/m 0 min 0 min 10 W/m 35,4 km/h (5 Bft) 95,74 %
09.01.2023 09:48 7,8 C 7,2 C 4,4 C 86 % 997,6 hPa 0,0 l/m 0 min 0 min 9 W/m 32,2 km/h (5 Bft) 95,74 %
09.01.2023 09:50 7,8 C 7,2 C 4,4 C 86 % 997,7 hPa 0,0 l/m 0 min 0 min 7 W/m 32,2 km/h (5 Bft) 95,74 %
09.01.2023 09:52 7,8 C 7,2 C 4,4 C 86 % 997,8 hPa 0,0 l/m 0 min 0 min 7 W/m 19,3 km/h (3 Bft) 97,87 %
09.01.2023 09:54 7,8 C 7,2 C 4,4 C 86 % 997,8 hPa 0,0 l/m 0 min 0 min 7 W/m 25,7 km/h (4 Bft) 95,74 %
09.01.2023 09:56 7,9 C 7,2 C 4,4 C 86 % 997,7 hPa 0,0 l/m 0 min 0 min 7 W/m 25,7 km/h (4 Bft) 97,83 %
09.01.2023 09:58 7,8 C 7,2 C 3,9 C 86 % 997,8 hPa 0,0 l/m 0 min 0 min 7 W/m 16,1 km/h (3 Bft) 97,87 %
09.01.2023 10:00 7,8 C 7,2 C 3,9 C 86 % 997,9 hPa 0,0 l/m 0 min 0 min 10 W/m 19,3 km/h (3 Bft) 97,87 %
09.01.2023 10:02 7,8 C 7,2 C 4,4 C 86 % 997,9 hPa 0,0 l/m 0 min 0 min 12 W/m 25,7 km/h (4 Bft) 97,87 %
09.01.2023 10:04 7,8 C 7,2 C 4,4 C 86 % 997,9 hPa 0,0 l/m 0 min 0 min 8 W/m 29,0 km/h (5 Bft) 97,87 %
09.01.2023 10:06 7,9 C 7,2 C 3,9 C 86 % 997,9 hPa 0,0 l/m 0 min 0 min 5 W/m 22,5 km/h (4 Bft) 100,00 %
09.01.2023 10:08 7,8 C 7,2 C 3,9 C 86 % 997,9 hPa 0,0 l/m 0 min 0 min 7 W/m 35,4 km/h (5 Bft) 100,00 %
09.01.2023 10:10 7,9 C 7,2 C 3,9 C 86 % 998,0 hPa 0,0 l/m 0 min 0 min 12 W/m 35,4 km/h (5 Bft) 100,00 %
09.01.2023 10:12 7,9 C 7,2 C 3,9 C 86 % 998,0 hPa 0,0 l/m 0 min 0 min 18 W/m 22,5 km/h (4 Bft) 100,00 %
09.01.2023 10:14 7,9 C 7,2 C 3,9 C 86 % 998,0 hPa 0,0 l/m 0 min 0 min 25 W/m 16,1 km/h (3 Bft) 97,87 %
09.01.2023 10:16 7,9 C 7,2 C 3,9 C 86 % 998,0 hPa 0,0 l/m 0 min 0 min 40 W/m 25,7 km/h (4 Bft) 100,00 %
09.01.2023 10:18 7,9 C 7,2 C 3,9 C 86 % 998,0 hPa 0,0 l/m 0 min 0 min 55 W/m 22,5 km/h (4 Bft) 100,00 %
09.01.2023 10:20 7,9 C 7,2 C 4,4 C 86 % 997,9 hPa 0,0 l/m 0 min 0 min 75 W/m 29,0 km/h (5 Bft) 100,00 %
09.01.2023 10:22 7,9 C 7,8 C 4,4 C 86 % 998,0 hPa 0,0 l/m 0 min 0 min 78 W/m 35,4 km/h (5 Bft) 97,87 %
09.01.2023 10:24 8,0 C 7,8 C 4,4 C 86 % 998,0 hPa 0,0 l/m 0 min 0 min 77 W/m 19,3 km/h (3 Bft) 97,87 %
09.01.2023 10:26 8,0 C 7,8 C 4,4 C 86 % 998,0 hPa 0,0 l/m 0 min 0 min 67 W/m 19,3 km/h (3 Bft) 97,83 %
09.01.2023 10:28 8,1 C 7,8 C 4,4 C 86 % 998,2 hPa 0,0 l/m 0 min 0 min 70 W/m 25,7 km/h (4 Bft) 97,87 %
09.01.2023 10:30 8,1 C 7,8 C 4,4 C 86 % 998,0 hPa 0,0 l/m 0 min 0 min 65 W/m 22,5 km/h (4 Bft) 97,87 %
09.01.2023 10:32 8,1 C 7,8 C 4,4 C 86 % 997,9 hPa 0,0 l/m 0 min 0 min 55 W/m 35,4 km/h (5 Bft) 97,87 %
09.01.2023 10:34 8,1 C 7,8 C 4,4 C 86 % 998,0 hPa 0,0 l/m 0 min 0 min 55 W/m 19,3 km/h (3 Bft) 95,74 %
09.01.2023 10:36 8,1 C 7,8 C 4,4 C 86 % 998,0 hPa 0,0 l/m 0 min 0 min 58 W/m 29,0 km/h (5 Bft) 97,87 %
09.01.2023 10:38 8,1 C 7,8 C 4,4 C 86 % 998,0 hPa 0,0 l/m 0 min 0 min 51 W/m 48,3 km/h (6 Bft) 97,87 %
09.01.2023 10:40 8,1 C 7,8 C 4,4 C 86 % 998,0 hPa 0,0 l/m 0 min 0 min 46 W/m 19,3 km/h (3 Bft) 97,83 %
09.01.2023 10:42 8,2 C 7,8 C 4,4 C 86 % 998,1 hPa 0,0 l/m 0 min 0 min 41 W/m 19,3 km/h (3 Bft) 97,87 %
09.01.2023 10:44 8,1 C 7,8 C 4,4 C 86 % 998,1 hPa 0,0 l/m 0 min 0 min 29 W/m 32,2 km/h (5 Bft) 97,87 %
09.01.2023 10:46 8,2 C 7,8 C 4,4 C 86 % 998,2 hPa 0,0 l/m 0 min 0 min 22 W/m 32,2 km/h (5 Bft) 97,87 %
09.01.2023 10:48 8,2 C 7,8 C 4,4 C 86 % 998,2 hPa 0,0 l/m 0 min 0 min 20 W/m 29,0 km/h (5 Bft) 97,87 %
09.01.2023 10:50 8,2 C 7,8 C 4,4 C 85 % 998,2 hPa 0,0 l/m 0 min 0 min 15 W/m 35,4 km/h (5 Bft) 97,87 %
09.01.2023 10:52 8,2 C 7,2 C 4,4 C 85 % 998,3 hPa 0,0 l/m 0 min 0 min 14 W/m 25,7 km/h (4 Bft) 95,74 %
09.01.2023 10:54 8,2 C 7,8 C 4,4 C 85 % 998,4 hPa 0,0 l/m 0 min 0 min 18 W/m 35,4 km/h (5 Bft) 95,65 %
09.01.2023 10:56 8,2 C 7,8 C 4,4 C 85 % 998,4 hPa 0,0 l/m 0 min 0 min 22 W/m 25,7 km/h (4 Bft) 97,87 %
09.01.2023 10:58 8,2 C 7,8 C 4,4 C 85 % 998,5 hPa 0,0 l/m 0 min 0 min 29 W/m 25,7 km/h (4 Bft) 95,74 %
09.01.2023 11:00 8,2 C 7,8 C 4,4 C 85 % 998,6 hPa 0,0 l/m 0 min 0 min 27 W/m 19,3 km/h (3 Bft) 95,74 %
09.01.2023 11:02 8,1 C 7,8 C 4,4 C 86 % 998,6 hPa 0,0 l/m 0 min 0 min 29 W/m 29,0 km/h (5 Bft) 95,74 %
09.01.2023 11:04 8,1 C 7,8 C 4,4 C 85 % 998,6 hPa 0,0 l/m 0 min 0 min 40 W/m 45,1 km/h (6 Bft) 95,74 %
09.01.2023 11:06 8,1 C 7,8 C 4,4 C 86 % 998,7 hPa 0,0 l/m 0 min 0 min 52 W/m 35,4 km/h (5 Bft) 97,87 %
09.01.2023 11:08 8,1 C 7,8 C 4,4 C 86 % 998,7 hPa 0,0 l/m 0 min 0 min 58 W/m 32,2 km/h (5 Bft) 97,83 %
09.01.2023 11:10 8,1 C 7,8 C 4,4 C 86 % 998,7 hPa 0,0 l/m 0 min 0 min 54 W/m 41,8 km/h (6 Bft) 97,87 %
09.01.2023 11:12 8,1 C 7,8 C 4,4 C 85 % 998,7 hPa 0,0 l/m 0 min 0 min 45 W/m 32,2 km/h (5 Bft) 97,87 %
09.01.2023 11:14 8,1 C 7,8 C 4,4 C 85 % 998,7 hPa 0,0 l/m 0 min 0 min 34 W/m 48,3 km/h (6 Bft) 95,74 %
09.01.2023 11:16 8,1 C 7,8 C 4,4 C 85 % 998,7 hPa 0,0 l/m 0 min 0 min 30 W/m 32,2 km/h (5 Bft) 95,74 %
09.01.2023 11:18 8,2 C 7,8 C 4,4 C 85 % 998,7 hPa 0,0 l/m 0 min 0 min 39 W/m 29,0 km/h (5 Bft) 95,74 %
09.01.2023 11:20 8,1 C 7,8 C 4,4 C 85 % 998,7 hPa 0,0 l/m 0 min 0 min 53 W/m 32,2 km/h (5 Bft) 97,83 %
09.01.2023 11:22 8,1 C 7,8 C 4,4 C 86 % 998,8 hPa 0,0 l/m 0 min 0 min 62 W/m 32,2 km/h (5 Bft) 97,87 %
09.01.2023 11:24 8,1 C 7,8 C 4,4 C 86 % 998,7 hPa 0,0 l/m 0 min 0 min 61 W/m 29,0 km/h (5 Bft) 97,87 %
09.01.2023 11:26 8,1 C 7,8 C 4,4 C 86 % 998,7 hPa 0,0 l/m 0 min 0 min 50 W/m 35,4 km/h (5 Bft) 95,74 %
09.01.2023 11:28 8,1 C 7,8 C 4,4 C 86 % 998,8 hPa 0,0 l/m 0 min 0 min 54 W/m 25,7 km/h (4 Bft) 97,87 %
09.01.2023 11:30 8,1 C 7,8 C 4,4 C 86 % 998,8 hPa 0,0 l/m 0 min 0 min 62 W/m 29,0 km/h (5 Bft) 97,87 %
09.01.2023 11:32 8,1 C 7,8 C 4,4 C 86 % 998,8 hPa 0,0 l/m 0 min 0 min 62 W/m 22,5 km/h (4 Bft) 97,87 %
09.01.2023 11:34 8,1 C 7,8 C 4,4 C 86 % 998,8 hPa 0,0 l/m 0 min 0 min 74 W/m 19,3 km/h (3 Bft) 95,65 %
09.01.2023 11:36 8,1 C 7,8 C 4,4 C 86 % 998,8 hPa 0,0 l/m 0 min 0 min 59 W/m 22,5 km/h (4 Bft) 97,87 %
09.01.2023 11:38 8,1 C 7,8 C 4,4 C 86 % 998,8 hPa 0,0 l/m 0 min 0 min 37 W/m 25,7 km/h (4 Bft) 97,87 %
09.01.2023 11:40 8,1 C 7,8 C 4,4 C 86 % 998,8 hPa 0,0 l/m 0 min 0 min 38 W/m 29,0 km/h (5 Bft) 97,87 %
09.01.2023 11:42 8,1 C 7,8 C 4,4 C 86 % 998,8 hPa 0,0 l/m 0 min 0 min 52 W/m 16,1 km/h (3 Bft) 95,74 %
09.01.2023 11:44 8,1 C 7,8 C 4,4 C 86 % 998,8 hPa 0,0 l/m 0 min 0 min 61 W/m 29,0 km/h (5 Bft) 95,74 %
09.01.2023 11:46 8,1 C 7,8 C 4,4 C 86 % 998,8 hPa 0,0 l/m 0 min 0 min 62 W/m 25,7 km/h (4 Bft) 97,87 %
09.01.2023 11:48 8,1 C 7,8 C 4,4 C 86 % 998,9 hPa 0,0 l/m 0 min 0 min 81 W/m 29,0 km/h (5 Bft) 100,00 %
09.01.2023 11:50 8,1 C 7,8 C 4,4 C 86 % 998,8 hPa 0,0 l/m 0 min 0 min 103 W/m 16,1 km/h (3 Bft) 100,00 %
09.01.2023 11:52 8,2 C 7,8 C 4,4 C 86 % 998,9 hPa 0,0 l/m 0 min 0 min 96 W/m 25,7 km/h (4 Bft) 95,74 %
09.01.2023 11:54 8,2 C 7,8 C 4,4 C 86 % 998,9 hPa 0,0 l/m 0 min 0 min 95 W/m 35,4 km/h (5 Bft) 95,74 %
09.01.2023 11:56 8,2 C 7,8 C 4,4 C 86 % 998,9 hPa 0,0 l/m 0 min 0 min 81 W/m 25,7 km/h (4 Bft) 100,00 %
09.01.2023 11:58 8,2 C 7,8 C 4,4 C 86 % 998,9 hPa 0,0 l/m 0 min 0 min 66 W/m 16,1 km/h (3 Bft) 100,00 %
09.01.2023 12:00 8,3 C 7,8 C 4,4 C 86 % 998,9 hPa 0,0 l/m 0 min 0 min 64 W/m 12,9 km/h (3 Bft) 100,00 %
09.01.2023 12:02 8,3 C 7,8 C 4,4 C 86 % 998,9 hPa 0,0 l/m 0 min 0 min 69 W/m 22,5 km/h (4 Bft) 95,74 %
09.01.2023 12:04 8,3 C 7,8 C 4,4 C 86 % 998,9 hPa 0,0 l/m 0 min 0 min 77 W/m 16,1 km/h (3 Bft) 97,87 %
09.01.2023 12:08 8,3 C 8,3 C 5,0 C 86 % 999,0 hPa 0,0 l/m 0 min 0 min 101 W/m 19,3 km/h (3 Bft) 97,87 %
09.01.2023 12:10 8,3 C 8,3 C 5,0 C 86 % 999,0 hPa 0,0 l/m 0 min 0 min 89 W/m 12,9 km/h (3 Bft) 95,74 %
09.01.2023 12:12 8,3 C 7,8 C 5,0 C 86 % 999,0 hPa 0,0 l/m 0 min 0 min 68 W/m 22,5 km/h (4 Bft) 97,87 %
09.01.2023 12:14 8,3 C 7,8 C 5,0 C 86 % 999,0 hPa 0,0 l/m 0 min 0 min 45 W/m 29,0 km/h (5 Bft) 95,74 %
09.01.2023 12:16 8,3 C 7,8 C 5,0 C 85 % 999,0 hPa 0,0 l/m 0 min 0 min 34 W/m 19,3 km/h (3 Bft) 95,74 %
09.01.2023 12:18 8,3 C 7,8 C 4,4 C 85 % 999,0 hPa 0,0 l/m 0 min 0 min 32 W/m 25,7 km/h (4 Bft) 97,87 %
09.01.2023 12:20 8,3 C 7,8 C 4,4 C 85 % 999,0 hPa 0,0 l/m 0 min 0 min 28 W/m 25,7 km/h (4 Bft) 97,87 %
09.01.2023 12:22 8,3 C 7,8 C 4,4 C 85 % 999,0 hPa 0,0 l/m 0 min 0 min 28 W/m 19,3 km/h (3 Bft) 97,83 %
09.01.2023 12:24 8,3 C 7,8 C 4,4 C 85 % 999,0 hPa 0,0 l/m 0 min 0 min 45 W/m 22,5 km/h (4 Bft) 95,74 %
09.01.2023 12:26 8,3 C 7,8 C 4,4 C 85 % 999,1 hPa 0,0 l/m 0 min 0 min 55 W/m 19,3 km/h (3 Bft) 95,74 %
09.01.2023 12:28 8,3 C 7,8 C 4,4 C 85 % 999,0 hPa 0,0 l/m 0 min 0 min 46 W/m 25,7 km/h (4 Bft) 93,62 %
09.01.2023 12:30 8,3 C 7,8 C 4,4 C 84 % 999,0 hPa 0,0 l/m 0 min 0 min 31 W/m 51,5 km/h (7 Bft) 93,62 %
09.01.2023 12:32 8,3 C 7,8 C 4,4 C 84 % 999,0 hPa 0,0 l/m 0 min 0 min 25 W/m 19,3 km/h (3 Bft) 95,74 %
09.01.2023 12:34 8,3 C 7,8 C 4,4 C 84 % 999,1 hPa 0,0 l/m 0 min 0 min 26 W/m 16,1 km/h (3 Bft) 95,74 %
09.01.2023 12:36 8,2 C 7,8 C 4,4 C 85 % 999,1 hPa 0,0 l/m 0 min 0 min 32 W/m 19,3 km/h (3 Bft) 95,65 %
09.01.2023 12:38 8,2 C 7,8 C 4,4 C 85 % 999,1 hPa 0,0 l/m 0 min 0 min 37 W/m 22,5 km/h (4 Bft) 95,74 %
09.01.2023 12:40 8,2 C 7,8 C 4,4 C 84 % 999,1 hPa 0,0 l/m 0 min 0 min 42 W/m 29,0 km/h (5 Bft) 95,74 %
09.01.2023 12:42 8,2 C 7,8 C 4,4 C 84 % 999,1 hPa 0,0 l/m 0 min 0 min 47 W/m 25,7 km/h (4 Bft) 95,74 %
09.01.2023 12:44 8,2 C 7,8 C 4,4 C 84 % 999,1 hPa 0,0 l/m 0 min 0 min 63 W/m 29,0 km/h (5 Bft) 95,74 %
09.01.2023 12:46 8,2 C 7,8 C 4,4 C 85 % 999,1 hPa 0,0 l/m 0 min 0 min 64 W/m 12,9 km/h (3 Bft) 95,74 %
09.01.2023 12:48 8,2 C 7,8 C 4,4 C 85 % 999,1 hPa 0,0 l/m 0 min 0 min 48 W/m 25,7 km/h (4 Bft) 93,48 %
09.01.2023 12:50 8,2 C 7,8 C 4,4 C 85 % 999,1 hPa 0,0 l/m 0 min 0 min 39 W/m 32,2 km/h (5 Bft) 95,74 %
09.01.2023 12:52 8,2 C 7,8 C 4,4 C 84 % 999,1 hPa 0,0 l/m 0 min 0 min 37 W/m 25,7 km/h (4 Bft) 97,87 %
09.01.2023 12:54 8,1 C 7,8 C 4,4 C 84 % 999,2 hPa 0,0 l/m 0 min 0 min 61 W/m 29,0 km/h (5 Bft) 95,74 %
09.01.2023 12:56 8,1 C 7,8 C 4,4 C 84 % 999,2 hPa 0,0 l/m 0 min 0 min 71 W/m 29,0 km/h (5 Bft) 97,87 %
09.01.2023 12:58 8,1 C 7,8 C 4,4 C 84 % 999,2 hPa 0,0 l/m 0 min 0 min 96 W/m 22,5 km/h (4 Bft) 97,87 %
09.01.2023 13:00 8,1 C 7,8 C 4,4 C 84 % 999,3 hPa 0,0 l/m 0 min 0 min 99 W/m 25,7 km/h (4 Bft) 100,00 %
09.01.2023 13:02 8,1 C 7,8 C 4,4 C 84 % 999,4 hPa 0,0 l/m 0 min 0 min 82 W/m 19,3 km/h (3 Bft) 100,00 %
09.01.2023 13:04 8,1 C 7,8 C 4,4 C 84 % 999,3 hPa 0,0 l/m 0 min 0 min 77 W/m 16,1 km/h (3 Bft) 100,00 %
09.01.2023 13:06 8,1 C 7,8 C 4,4 C 84 % 999,4 hPa 0,0 l/m 0 min 0 min 87 W/m 19,3 km/h (3 Bft) 100,00 %
09.01.2023 13:08 8,1 C 7,8 C 4,4 C 84 % 999,4 hPa 0,0 l/m 0 min 0 min 100 W/m 16,1 km/h (3 Bft) 100,00 %
09.01.2023 13:10 8,2 C 7,8 C 4,4 C 84 % 999,5 hPa 0,0 l/m 0 min 0 min 82 W/m 16,1 km/h (3 Bft) 100,00 %
09.01.2023 13:12 8,2 C 7,8 C 4,4 C 84 % 999,5 hPa 0,0 l/m 0 min 0 min 72 W/m 16,1 km/h (3 Bft) 100,00 %
09.01.2023 13:14 8,2 C 7,8 C 4,4 C 84 % 999,5 hPa 0,0 l/m 0 min 0 min 65 W/m 45,1 km/h (6 Bft) 100,00 %
09.01.2023 13:16 8,1 C 7,8 C 4,4 C 84 % 999,6 hPa 0,0 l/m 0 min 0 min 42 W/m 19,3 km/h (3 Bft) 100,00 %
09.01.2023 13:18 8,1 C 7,8 C 4,4 C 84 % 999,6 hPa 0,0 l/m 0 min 0 min 32 W/m 16,1 km/h (3 Bft) 100,00 %
09.01.2023 13:20 8,1 C 7,8 C 4,4 C 84 % 999,6 hPa 0,0 l/m 0 min 0 min 30 W/m 25,7 km/h (4 Bft) 100,00 %
09.01.2023 13:22 8,1 C 7,2 C 4,4 C 84 % 999,7 hPa 0,0 l/m 0 min 0 min 35 W/m 16,1 km/h (3 Bft) 100,00 %
09.01.2023 13:24 8,1 C 7,2 C 4,4 C 84 % 999,6 hPa 0,0 l/m 0 min 0 min 53 W/m 25,7 km/h (4 Bft) 100,00 %
09.01.2023 13:26 8,1 C 7,8 C 4,4 C 84 % 999,7 hPa 0,0 l/m 0 min 0 min 66 W/m 16,1 km/h (3 Bft) 97,87 %
09.01.2023 13:28 8,0 C 7,8 C 4,4 C 84 % 999,7 hPa 0,0 l/m 0 min 0 min 105 W/m 12,9 km/h (3 Bft) 100,00 %
09.01.2023 13:30 8,1 C 7,8 C 4,4 C 84 % 999,9 hPa 0,0 l/m 0 min 0 min 128 W/m 19,3 km/h (3 Bft) 100,00 %
09.01.2023 13:32 8,1 C 8,3 C 4,4 C 84 % 999,8 hPa 0,0 l/m 0 min 0 min 152 W/m 19,3 km/h (3 Bft) 97,87 %
09.01.2023 13:34 8,1 C 8,3 C 4,4 C 84 % 999,7 hPa 0,0 l/m 2 min 2 min 166 W/m 16,1 km/h (3 Bft) 95,74 %
09.01.2023 13:36 8,1 C 8,3 C 4,4 C 84 % 999,8 hPa 0,0 l/m 0 min 0 min 147 W/m 16,1 km/h (3 Bft) 97,87 %
09.01.2023 13:38 8,2 C 8,3 C 4,4 C 84 % 999,9 hPa 0,0 l/m 0 min 2 min 98 W/m 25,7 km/h (4 Bft) 97,87 %
09.01.2023 13:40 8,2 C 7,8 C 4,4 C 85 % 999,8 hPa 0,0 l/m 0 min 2 min 66 W/m 16,1 km/h (3 Bft) 100,00 %
09.01.2023 13:42 8,1 C 7,8 C 3,9 C 85 % 999,8 hPa 0,0 l/m 0 min 2 min 50 W/m 19,3 km/h (3 Bft) 100,00 %
09.01.2023 13:44 8,1 C 7,2 C 3,9 C 85 % 999,8 hPa 0,0 l/m 0 min 2 min 47 W/m 22,5 km/h (4 Bft) 97,87 %
09.01.2023 13:46 8,1 C 7,2 C 3,9 C 85 % 999,8 hPa 0,0 l/m 0 min 2 min 78 W/m 19,3 km/h (3 Bft) 97,87 %
09.01.2023 13:48 8,0 C 7,2 C 3,9 C 86 % 999,9 hPa 0,0 l/m 0 min 2 min 82 W/m 29,0 km/h (5 Bft) 93,62 %
09.01.2023 13:50 8,0 C 7,2 C 3,9 C 86 % 999,8 hPa 0,0 l/m 0 min 0 min 71 W/m 16,1 km/h (3 Bft) 97,87 %
09.01.2023 13:52 7,9 C 7,2 C 3,9 C 86 % 999,9 hPa 0,0 l/m 0 min 0 min 76 W/m 22,5 km/h (4 Bft) 97,87 %
09.01.2023 13:54 7,9 C 7,8 C 3,9 C 86 % 999,9 hPa 0,0 l/m 0 min 0 min 89 W/m 22,5 km/h (4 Bft) 97,87 %
09.01.2023 13:56 7,9 C 7,8 C 3,9 C 86 % 999,8 hPa 0,0 l/m 0 min 0 min 94 W/m 22,5 km/h (4 Bft) 97,83 %
09.01.2023 13:58 7,9 C 7,8 C 3,9 C 86 % 999,9 hPa 0,0 l/m 0 min 0 min 107 W/m 19,3 km/h (3 Bft) 95,74 %
09.01.2023 14:00 7,9 C 7,8 C 3,9 C 87 % 999,9 hPa 0,0 l/m 0 min 0 min 113 W/m 19,3 km/h (3 Bft) 97,87 %
09.01.2023 14:02 7,9 C 7,8 C 4,4 C 87 % 999,9 hPa 0,0 l/m 0 min 0 min 97 W/m 19,3 km/h (3 Bft) 95,74 %
09.01.2023 14:04 7,9 C 7,8 C 4,4 C 87 % 1000,0 hPa 0,0 l/m 0 min 0 min 89 W/m 16,1 km/h (3 Bft) 97,87 %
09.01.2023 14:06 7,9 C 7,8 C 4,4 C 87 % 1000,0 hPa 0,0 l/m 0 min 0 min 71 W/m 12,9 km/h (3 Bft) 93,75 %
09.01.2023 14:08 7,9 C 7,8 C 3,9 C 87 % 1000,0 hPa 0,0 l/m 0 min 2 min 68 W/m 12,9 km/h (3 Bft) 100,00 %
09.01.2023 14:10 7,9 C 7,8 C 3,9 C 87 % 1000,0 hPa 0,0 l/m 0 min 2 min 74 W/m 16,1 km/h (3 Bft) 95,74 %
09.01.2023 14:12 8,0 C 7,8 C 3,9 C 87 % 1000,0 hPa 0,0 l/m 0 min 2 min 74 W/m 12,9 km/h (3 Bft) 97,83 %
09.01.2023 14:14 7,9 C 7,8 C 3,9 C 87 % 1000,1 hPa 0,0 l/m 0 min 2 min 67 W/m 12,9 km/h (3 Bft) 97,87 %
09.01.2023 14:16 7,9 C 7,8 C 3,3 C 87 % 1000,2 hPa 0,0 l/m 0 min 2 min 68 W/m 12,9 km/h (3 Bft) 97,87 %
09.01.2023 14:18 7,9 C 7,2 C 3,3 C 87 % 1000,1 hPa 0,0 l/m 0 min 2 min 75 W/m 22,5 km/h (4 Bft) 95,74 %
09.01.2023 14:20 7,9 C 7,2 C 3,3 C 88 % 1000,2 hPa 0,0 l/m 0 min 2 min 66 W/m 12,9 km/h (3 Bft) 93,62 %
09.01.2023 14:22 7,8 C 7,2 C 3,3 C 88 % 1000,3 hPa 0,0 l/m 0 min 2 min 58 W/m 32,2 km/h (5 Bft) 97,87 %
09.01.2023 14:24 7,8 C 7,2 C 3,3 C 87 % 1000,2 hPa 0,0 l/m 0 min 2 min 64 W/m 25,7 km/h (4 Bft) 97,87 %
09.01.2023 14:26 7,8 C 7,2 C 3,3 C 88 % 1000,3 hPa 0,0 l/m 0 min 0 min 54 W/m 16,1 km/h (3 Bft) 95,65 %
09.01.2023 14:28 7,8 C 7,2 C 3,9 C 88 % 1000,3 hPa 0,0 l/m 0 min 0 min 60 W/m 12,9 km/h (3 Bft) 93,62 %
09.01.2023 14:30 7,8 C 7,2 C 3,9 C 88 % 1000,2 hPa 0,0 l/m 0 min 0 min 83 W/m 16,1 km/h (3 Bft) 95,74 %
09.01.2023 14:32 7,8 C 7,8 C 3,9 C 88 % 1000,3 hPa 0,0 l/m 0 min 0 min 113 W/m 16,1 km/h (3 Bft) 97,87 %
09.01.2023 14:34 7,8 C 7,8 C 3,9 C 88 % 1000,3 hPa 0,0 l/m 0 min 0 min 116 W/m 19,3 km/h (3 Bft) 95,74 %
09.01.2023 14:36 7,8 C 7,8 C 3,9 C 88 % 1000,3 hPa 0,0 l/m 0 min 0 min 86 W/m 12,9 km/h (3 Bft) 95,74 %
09.01.2023 14:38 7,8 C 7,8 C 3,9 C 88 % 1000,4 hPa 0,0 l/m 0 min 0 min 74 W/m 16,1 km/h (3 Bft) 97,87 %
09.01.2023 14:40 7,8 C 7,8 C 3,9 C 88 % 1000,4 hPa 0,0 l/m 0 min 0 min 65 W/m 12,9 km/h (3 Bft) 93,48 %
09.01.2023 14:42 7,8 C 7,8 C 3,9 C 88 % 1000,4 hPa 0,0 l/m 0 min 0 min 65 W/m 16,1 km/h (3 Bft) 93,62 %
09.01.2023 14:44 7,8 C 7,2 C 3,9 C 88 % 1000,4 hPa 0,0 l/m 0 min 0 min 62 W/m 19,3 km/h (3 Bft) 97,87 %
09.01.2023 14:46 7,8 C 7,2 C 4,4 C 88 % 1000,5 hPa 0,0 l/m 0 min 0 min 64 W/m 12,9 km/h (3 Bft) 93,62 %
09.01.2023 14:48 7,8 C 7,2 C 4,4 C 88 % 1000,5 hPa 0,0 l/m 0 min 0 min 59 W/m 22,5 km/h (4 Bft) 95,74 %
09.01.2023 14:50 7,8 C 7,2 C 3,9 C 87 % 1000,6 hPa 0,0 l/m 0 min 2 min 54 W/m 19,3 km/h (3 Bft) 93,62 %
09.01.2023 14:52 7,8 C 7,2 C 3,9 C 88 % 1000,6 hPa 0,0 l/m 0 min 2 min 42 W/m 19,3 km/h (3 Bft) 93,62 %
09.01.2023 14:54 7,7 C 7,2 C 3,3 C 88 % 1000,6 hPa 0,0 l/m 0 min 2 min 35 W/m 16,1 km/h (3 Bft) 95,83 %
09.01.2023 14:56 7,7 C 7,2 C 3,3 C 88 % 1000,6 hPa 0,0 l/m 0 min 2 min 40 W/m 16,1 km/h (3 Bft) 95,65 %
09.01.2023 14:58 7,7 C 7,2 C 3,3 C 88 % 1000,7 hPa 0,0 l/m 0 min 0 min 59 W/m 12,9 km/h (3 Bft) 97,87 %
09.01.2023 15:00 7,7 C 7,2 C 3,3 C 89 % 1000,7 hPa 0,0 l/m 0 min 0 min 48 W/m 6,4 km/h (2 Bft) 97,87 %
09.01.2023 15:02 7,6 C 7,2 C 3,3 C 89 % 1000,8 hPa 0,0 l/m 0 min 0 min 43 W/m 12,9 km/h (3 Bft) 97,87 %
09.01.2023 15:04 7,6 C 7,2 C 3,3 C 89 % 1000,8 hPa 0,0 l/m 0 min 0 min 35 W/m 19,3 km/h (3 Bft) 97,87 %
09.01.2023 15:06 7,6 C 7,2 C 3,9 C 89 % 1000,8 hPa 0,0 l/m 0 min 0 min 36 W/m 12,9 km/h (3 Bft) 97,87 %
09.01.2023 15:08 7,6 C 7,2 C 3,9 C 89 % 1000,8 hPa 0,0 l/m 0 min 0 min 50 W/m 12,9 km/h (3 Bft) 97,87 %
09.01.2023 15:10 7,6 C 7,2 C 3,9 C 89 % 1000,9 hPa 0,0 l/m 0 min 0 min 54 W/m 12,9 km/h (3 Bft) 95,74 %
09.01.2023 15:12 7,7 C 7,2 C 3,9 C 89 % 1000,9 hPa 0,0 l/m 0 min 0 min 55 W/m 12,9 km/h (3 Bft) 97,83 %
09.01.2023 15:14 7,7 C 7,2 C 3,9 C 89 % 1001,0 hPa 0,0 l/m 0 min 0 min 62 W/m 6,4 km/h (2 Bft) 97,87 %
09.01.2023 15:16 7,7 C 7,2 C 3,9 C 89 % 1001,0 hPa 0,0 l/m 0 min 0 min 62 W/m 6,4 km/h (2 Bft) 100,00 %
09.01.2023 15:18 7,7 C 7,2 C 3,9 C 89 % 1001,0 hPa 0,0 l/m 0 min 0 min 67 W/m 12,9 km/h (3 Bft) 97,87 %
09.01.2023 15:20 7,7 C 7,8 C 3,9 C 89 % 1001,1 hPa 0,0 l/m 0 min 0 min 75 W/m 29,0 km/h (5 Bft) 95,74 %
09.01.2023 15:22 7,7 C 7,8 C 4,4 C 88 % 1001,2 hPa 0,0 l/m 0 min 0 min 73 W/m 6,4 km/h (2 Bft) 97,87 %
09.01.2023 15:24 7,8 C 7,8 C 4,4 C 88 % 1001,3 hPa 0,0 l/m 0 min 0 min 63 W/m 22,5 km/h (4 Bft) 95,65 %
09.01.2023 15:26 7,8 C 7,2 C 4,4 C 88 % 1001,3 hPa 0,0 l/m 0 min 0 min 50 W/m 16,1 km/h (3 Bft) 97,87 %
09.01.2023 15:28 7,8 C 7,2 C 4,4 C 88 % 1001,4 hPa 0,0 l/m 0 min 0 min 41 W/m 19,3 km/h (3 Bft) 97,87 %
09.01.2023 15:30 7,8 C 7,2 C 4,4 C 87 % 1001,4 hPa 0,0 l/m 0 min 0 min 43 W/m 16,1 km/h (3 Bft) 97,87 %
09.01.2023 15:32 7,8 C 7,2 C 4,4 C 88 % 1001,5 hPa 0,0 l/m 0 min 0 min 40 W/m 16,1 km/h (3 Bft) 97,87 %
09.01.2023 15:34 7,8 C 7,2 C 4,4 C 87 % 1001,5 hPa 0,0 l/m 0 min 0 min 34 W/m 19,3 km/h (3 Bft) 97,87 %
09.01.2023 15:36 7,8 C 7,2 C 4,4 C 87 % 1001,6 hPa 0,0 l/m 0 min 0 min 22 W/m 19,3 km/h (3 Bft) 97,87 %
09.01.2023 15:38 7,8 C 7,2 C 3,9 C 87 % 1001,6 hPa 0,0 l/m 0 min 0 min 21 W/m 19,3 km/h (3 Bft) 100,00 %
09.01.2023 15:40 7,8 C 7,2 C 3,9 C 87 % 1001,6 hPa 0,0 l/m 0 min 0 min 26 W/m 16,1 km/h (3 Bft) 97,87 %
09.01.2023 15:42 7,8 C 7,2 C 3,9 C 87 % 1001,7 hPa 0,0 l/m 0 min 0 min 36 W/m 16,1 km/h (3 Bft) 100,00 %
09.01.2023 15:44 7,8 C 7,2 C 3,9 C 87 % 1001,7 hPa 0,0 l/m 0 min 0 min 32 W/m 19,3 km/h (3 Bft) 97,87 %
09.01.2023 15:46 7,8 C 7,2 C 3,9 C 87 % 1001,8 hPa 0,0 l/m 0 min 0 min 30 W/m 22,5 km/h (4 Bft) 100,00 %
09.01.2023 15:48 7,8 C 7,2 C 3,9 C 87 % 1001,8 hPa 0,0 l/m 0 min 0 min 28 W/m 29,0 km/h (5 Bft) 100,00 %
09.01.2023 15:50 7,8 C 7,2 C 3,9 C 87 % 1001,9 hPa 0,0 l/m 0 min 0 min 24 W/m 16,1 km/h (3 Bft) 100,00 %
09.01.2023 15:52 7,8 C 7,2 C 3,9 C 87 % 1001,9 hPa 0,0 l/m 0 min 0 min 16 W/m 19,3 km/h (3 Bft) 100,00 %
09.01.2023 15:54 7,8 C 7,2 C 3,9 C 87 % 1002,0 hPa 0,0 l/m 0 min 0 min 15 W/m 16,1 km/h (3 Bft) 100,00 %
09.01.2023 15:56 7,8 C 7,2 C 3,9 C 87 % 1002,0 hPa 0,0 l/m 0 min 0 min 14 W/m 22,5 km/h (4 Bft) 97,87 %
09.01.2023 15:58 7,8 C 7,2 C 3,9 C 87 % 1002,0 hPa 0,0 l/m 0 min 0 min 12 W/m 19,3 km/h (3 Bft) 100,00 %
09.01.2023 16:00 7,8 C 7,2 C 3,9 C 87 % 1002,1 hPa 0,0 l/m 0 min 0 min 8 W/m 12,9 km/h (3 Bft) 97,87 %
09.01.2023 16:02 7,7 C 7,2 C 3,9 C 87 % 1002,1 hPa 0,0 l/m 0 min 0 min 7 W/m 12,9 km/h (3 Bft) 97,87 %
09.01.2023 16:04 7,7 C 7,2 C 3,9 C 87 % 1002,1 hPa 0,0 l/m 0 min 0 min 7 W/m 12,9 km/h (3 Bft) 100,00 %
09.01.2023 16:06 7,7 C 7,2 C 3,9 C 87 % 1002,2 hPa 0,0 l/m 0 min 0 min 7 W/m 25,7 km/h (4 Bft) 97,83 %
09.01.2023 16:08 7,7 C 7,2 C 3,9 C 87 % 1002,2 hPa 0,0 l/m 0 min 0 min 9 W/m 29,0 km/h (5 Bft) 100,00 %
09.01.2023 16:10 7,7 C 7,2 C 3,9 C 87 % 1002,3 hPa 0,0 l/m 0 min 0 min 9 W/m 12,9 km/h (3 Bft) 78,72 %
09.01.2023 16:12 7,7 C 7,2 C 3,9 C 87 % 1002,3 hPa 0,0 l/m 0 min 0 min 10 W/m 16,1 km/h (3 Bft) 75,00 %
09.01.2023 16:14 7,7 C 7,2 C 3,9 C 87 % 1002,3 hPa 0,0 l/m 0 min 0 min 12 W/m 32,2 km/h (5 Bft) 100,00 %
09.01.2023 16:16 7,7 C 7,2 C 3,9 C 87 % 1002,4 hPa 0,0 l/m 0 min 0 min 12 W/m 12,9 km/h (3 Bft) 100,00 %
09.01.2023 16:18 7,7 C 7,2 C 3,9 C 87 % 1002,4 hPa 0,0 l/m 0 min 0 min 10 W/m 22,5 km/h (4 Bft) 100,00 %
09.01.2023 16:20 7,7 C 7,2 C 3,9 C 87 % 1002,4 hPa 0,0 l/m 0 min 0 min 6 W/m 19,3 km/h (3 Bft) 97,83 %
09.01.2023 16:22 7,7 C 7,2 C 3,9 C 87 % 1002,4 hPa 0,0 l/m 0 min 0 min 5 W/m 12,9 km/h (3 Bft) 97,87 %
09.01.2023 16:24 7,7 C 7,2 C 3,9 C 87 % 1002,5 hPa 0,0 l/m 0 min 0 min 1 W/m 12,9 km/h (3 Bft) 97,87 %
09.01.2023 16:26 7,7 C 7,2 C 3,9 C 88 % 1002,6 hPa 0,0 l/m 0 min 0 min 0 W/m 12,9 km/h (3 Bft) 97,87 %
09.01.2023 16:28 7,7 C 6,7 C 3,9 C 88 % 1002,6 hPa 0,0 l/m 0 min 0 min 0 W/m 12,9 km/h (3 Bft) 97,87 %
09.01.2023 16:30 7,6 C 7,2 C 3,9 C 88 % 1002,7 hPa 0,0 l/m 0 min 0 min 0 W/m 22,5 km/h (4 Bft) 97,87 %
09.01.2023 16:32 7,6 C 6,7 C 3,9 C 88 % 1002,7 hPa 0,0 l/m 0 min 0 min 0 W/m 22,5 km/h (4 Bft) 97,83 %
09.01.2023 16:34 7,6 C 6,7 C 3,9 C 88 % 1002,7 hPa 0,0 l/m 0 min 0 min 0 W/m 9,7 km/h (2 Bft) 95,74 %
09.01.2023 16:36 7,6 C 6,7 C 3,9 C 88 % 1002,7 hPa 0,0 l/m 0 min 0 min 0 W/m 12,9 km/h (3 Bft) 95,74 %
09.01.2023 16:38 7,6 C 6,7 C 3,9 C 88 % 1002,8 hPa 0,0 l/m 0 min 0 min 0 W/m 16,1 km/h (3 Bft) 95,74 %
09.01.2023 16:40 7,6 C 6,7 C 3,9 C 88 % 1002,8 hPa 0,0 l/m 0 min 0 min 0 W/m 19,3 km/h (3 Bft) 95,74 %
09.01.2023 16:42 7,6 C 6,7 C 3,9 C 88 % 1002,9 hPa 0,0 l/m 0 min 0 min 0 W/m 6,4 km/h (2 Bft) 95,74 %
09.01.2023 16:44 7,6 C 6,7 C 3,9 C 88 % 1003,0 hPa 0,0 l/m 0 min 0 min 0 W/m 12,9 km/h (3 Bft) 95,74 %
09.01.2023 16:46 7,6 C 6,7 C 3,9 C 88 % 1003,0 hPa 0,0 l/m 0 min 0 min 0 W/m 9,7 km/h (2 Bft) 93,48 %
09.01.2023 16:48 7,5 C 6,7 C 3,3 C 88 % 1003,0 hPa 0,0 l/m 0 min 0 min 0 W/m 6,4 km/h (2 Bft) 93,62 %
09.01.2023 16:50 7,5 C 6,7 C 3,9 C 88 % 1003,0 hPa 0,0 l/m 0 min 0 min 0 W/m 16,1 km/h (3 Bft) 95,74 %
09.01.2023 16:52 7,5 C 6,7 C 3,9 C 88 % 1003,1 hPa 0,0 l/m 0 min 0 min 0 W/m 16,1 km/h (3 Bft) 93,62 %
09.01.2023 16:54 7,5 C 6,7 C 3,9 C 88 % 1003,1 hPa 0,0 l/m 0 min 0 min 0 W/m 16,1 km/h (3 Bft) 97,87 %
09.01.2023 16:56 7,5 C 6,7 C 3,9 C 88 % 1003,2 hPa 0,0 l/m 0 min 0 min 0 W/m 12,9 km/h (3 Bft) 95,74 %
09.01.2023 16:58 7,5 C 6,7 C 3,3 C 88 % 1003,3 hPa 0,0 l/m 0 min 0 min 0 W/m 16,1 km/h (3 Bft) 97,87 %
09.01.2023 17:00 7,5 C 6,7 C 3,3 C 88 % 1003,3 hPa 0,0 l/m 0 min 0 min 0 W/m 12,9 km/h (3 Bft) 97,83 %
09.01.2023 17:02 7,4 C 6,7 C 3,3 C 89 % 1003,4 hPa 0,0 l/m 0 min 0 min 0 W/m 12,9 km/h (3 Bft) 95,74 %
09.01.2023 17:04 7,4 C 6,7 C 3,3 C 89 % 1003,4 hPa 0,0 l/m 0 min 0 min 0 W/m 16,1 km/h (3 Bft) 95,74 %
09.01.2023 17:06 7,4 C 6,7 C 3,3 C 89 % 1003,5 hPa 0,0 l/m 0 min 0 min 0 W/m 9,7 km/h (2 Bft) 97,87 %
09.01.2023 17:08 7,4 C 6,7 C 3,3 C 89 % 1003,5 hPa 0,0 l/m 0 min 0 min 0 W/m 9,7 km/h (2 Bft) 97,87 %
09.01.2023 17:10 7,4 C 6,7 C 3,3 C 89 % 1003,6 hPa 0,0 l/m 0 min 0 min 0 W/m 9,7 km/h (2 Bft) 97,87 %
09.01.2023 17:12 7,3 C 6,7 C 3,3 C 89 % 1003,6 hPa 0,0 l/m 0 min 0 min 0 W/m 16,1 km/h (3 Bft) 97,87 %
09.01.2023 17:14 7,3 C 6,7 C 3,3 C 89 % 1003,7 hPa 0,0 l/m 0 min 0 min 0 W/m 22,5 km/h (4 Bft) 97,83 %
09.01.2023 17:16 7,3 C 6,7 C 3,3 C 89 % 1003,7 hPa 0,0 l/m 0 min 0 min 0 W/m 12,9 km/h (3 Bft) 95,74 %
09.01.2023 17:18 7,3 C 6,7 C 3,3 C 89 % 1003,7 hPa 0,0 l/m 0 min 0 min 0 W/m 9,7 km/h (2 Bft) 95,74 %
09.01.2023 17:20 7,3 C 6,7 C 3,3 C 90 % 1003,8 hPa 0,0 l/m 0 min 2 min 0 W/m 9,7 km/h (2 Bft) 95,74 %
09.01.2023 17:22 7,3 C 6,7 C 3,3 C 90 % 1003,8 hPa 0,0 l/m 0 min 2 min 0 W/m 9,7 km/h (2 Bft) 97,87 %
09.01.2023 17:24 7,3 C 6,7 C 3,3 C 90 % 1003,9 hPa 0,0 l/m 0 min 2 min 0 W/m 19,3 km/h (3 Bft) 97,87 %
09.01.2023 17:26 7,3 C 6,7 C 2,8 C 90 % 1004,0 hPa 0,2 l/m 0 min 2 min 0 W/m 12,9 km/h (3 Bft) 93,62 %
09.01.2023 17:28 7,2 C 6,1 C 2,8 C 90 % 1003,9 hPa 0,2 l/m 0 min 2 min 0 W/m 12,9 km/h (3 Bft) 95,65 %
09.01.2023 17:30 7,2 C 6,1 C 2,8 C 90 % 1004,0 hPa 0,0 l/m 0 min 2 min 0 W/m 16,1 km/h (3 Bft) 97,87 %
09.01.2023 17:32 7,2 C 6,1 C 2,8 C 90 % 1003,9 hPa 0,0 l/m 0 min 2 min 0 W/m 12,9 km/h (3 Bft) 97,87 %
09.01.2023 17:34 7,2 C 6,1 C 2,8 C 91 % 1003,9 hPa 0,0 l/m 0 min 0 min 0 W/m 12,9 km/h (3 Bft) 95,74 %
09.01.2023 17:36 7,2 C 6,1 C 2,8 C 91 % 1004,0 hPa 0,0 l/m 0 min 0 min 0 W/m 16,1 km/h (3 Bft) 93,62 %
09.01.2023 17:38 7,2 C 6,1 C 2,8 C 91 % 1004,0 hPa 0,0 l/m 0 min 0 min 0 W/m 19,3 km/h (3 Bft) 97,87 %
09.01.2023 17:40 7,1 C 6,1 C 2,8 C 91 % 1004,1 hPa 0,0 l/m 0 min 0 min 0 W/m 16,1 km/h (3 Bft) 97,83 %
09.01.2023 17:42 7,1 C 6,1 C 2,8 C 91 % 1004,2 hPa 0,0 l/m 0 min 2 min 0 W/m 22,5 km/h (4 Bft) 97,87 %
09.01.2023 17:44 7,1 C 6,1 C 2,8 C 91 % 1004,2 hPa 0,0 l/m 0 min 2 min 0 W/m 16,1 km/h (3 Bft) 95,74 %
09.01.2023 17:46 7,1 C 6,1 C 2,8 C 91 % 1004,1 hPa 0,0 l/m 0 min 2 min 0 W/m 16,1 km/h (3 Bft) 93,62 %
09.01.2023 17:48 7,1 C 6,1 C 2,8 C 91 % 1004,3 hPa 0,0 l/m 0 min 0 min 0 W/m 16,1 km/h (3 Bft) 97,87 %
09.01.2023 17:50 7,1 C 6,1 C 2,8 C 91 % 1004,2 hPa 0,0 l/m 0 min 0 min 0 W/m 16,1 km/h (3 Bft) 95,74 %
09.01.2023 17:52 7,1 C 6,1 C 2,8 C 91 % 1004,2 hPa 0,0 l/m 0 min 0 min 0 W/m 19,3 km/h (3 Bft) 95,74 %
09.01.2023 17:54 7,1 C 6,1 C 2,8 C 91 % 1004,3 hPa 0,2 l/m 0 min 0 min 0 W/m 6,4 km/h (2 Bft) 97,83 %
09.01.2023 17:56 7,1 C 6,1 C 2,8 C 92 % 1004,4 hPa 0,0 l/m 0 min 0 min 0 W/m 12,9 km/h (3 Bft) 95,74 %
09.01.2023 17:58 7,0 C 6,1 C 2,2 C 92 % 1004,4 hPa 0,0 l/m 0 min 0 min 0 W/m 12,9 km/h (3 Bft) 97,87 %
09.01.2023 18:00 7,0 C 6,1 C 2,2 C 92 % 1004,3 hPa 0,0 l/m 0 min 0 min 0 W/m 22,5 km/h (4 Bft) 95,74 %
09.01.2023 18:02 7,0 C 6,1 C 2,2 C 92 % 1004,4 hPa 0,0 l/m 0 min 0 min 0 W/m 19,3 km/h (3 Bft) 95,74 %
09.01.2023 18:04 7,0 C 6,1 C 2,2 C 92 % 1004,4 hPa 0,0 l/m 0 min 2 min 0 W/m 22,5 km/h (4 Bft) 95,74 %
09.01.2023 18:07 7,0 C 6,1 C 2,2 C 92 % 1004,5 hPa 0,0 l/m 0 min 3 min 0 W/m 25,7 km/h (4 Bft) 94,29 %
09.01.2023 18:08 7,0 C 6,1 C 2,2 C 92 % 1004,5 hPa 0,0 l/m 0 min 1 min 0 W/m 19,3 km/h (3 Bft) 100,00 %
09.01.2023 18:10 6,9 C 6,1 C 2,2 C 92 % 1004,5 hPa 0,0 l/m 0 min 2 min 0 W/m 22,5 km/h (4 Bft) 100,00 %
09.01.2023 18:12 6,9 C 6,1 C 2,2 C 92 % 1004,6 hPa 0,0 l/m 0 min 2 min 0 W/m 16,1 km/h (3 Bft) 95,74 %
09.01.2023 18:14 6,9 C 6,1 C 2,2 C 92 % 1004,6 hPa 0,0 l/m 0 min 2 min 0 W/m 12,9 km/h (3 Bft) 95,74 %
09.01.2023 18:16 6,9 C 6,1 C 2,2 C 92 % 1004,7 hPa 0,0 l/m 0 min 2 min 0 W/m 12,9 km/h (3 Bft) 97,87 %
09.01.2023 18:18 6,9 C 6,1 C 2,2 C 92 % 1004,7 hPa 0,0 l/m 0 min 2 min 0 W/m 9,7 km/h (2 Bft) 95,74 %
09.01.2023 18:20 6,9 C 6,1 C 2,2 C 92 % 1004,7 hPa 0,0 l/m 0 min 2 min 0 W/m 22,5 km/h (4 Bft) 97,83 %
09.01.2023 18:22 6,9 C 6,1 C 2,2 C 92 % 1004,7 hPa 0,0 l/m 0 min 0 min 0 W/m 22,5 km/h (4 Bft) 97,87 %
09.01.2023 18:24 6,9 C 6,1 C 2,2 C 92 % 1004,8 hPa 0,0 l/m 0 min 2 min 0 W/m 16,1 km/h (3 Bft) 97,83 %
09.01.2023 18:26 6,9 C 6,1 C 2,2 C 92 % 1004,8 hPa 0,2 l/m 0 min 2 min 0 W/m 12,9 km/h (3 Bft) 95,74 %
09.01.2023 18:28 6,9 C 6,1 C 2,2 C 92 % 1004,8 hPa 0,0 l/m 0 min 2 min 0 W/m 9,7 km/h (2 Bft) 97,87 %
09.01.2023 18:30 6,9 C 6,1 C 2,2 C 92 % 1004,8 hPa 0,0 l/m 0 min 2 min 0 W/m 12,9 km/h (3 Bft) 95,74 %
09.01.2023 18:32 6,9 C 6,1 C 2,2 C 92 % 1004,8 hPa 0,0 l/m 0 min 2 min 0 W/m 6,4 km/h (2 Bft) 95,65 %
09.01.2023 18:34 6,9 C 6,1 C 2,2 C 92 % 1004,8 hPa 0,0 l/m 0 min 2 min 0 W/m 12,9 km/h (3 Bft) 97,87 %
09.01.2023 18:36 6,9 C 6,1 C 2,2 C 92 % 1004,9 hPa 0,2 l/m 0 min 0 min 0 W/m 12,9 km/h (3 Bft) 95,74 %
09.01.2023 18:38 6,9 C 6,1 C 2,2 C 92 % 1005,0 hPa 0,0 l/m 0 min 2 min 0 W/m 9,7 km/h (2 Bft) 95,74 %
09.01.2023 18:40 6,8 C 6,1 C 2,2 C 92 % 1005,1 hPa 0,0 l/m 0 min 2 min 0 W/m 6,4 km/h (2 Bft) 97,87 %
09.01.2023 18:42 6,8 C 6,1 C 2,2 C 92 % 1005,1 hPa 0,0 l/m 0 min 2 min 0 W/m 12,9 km/h (3 Bft) 95,74 %
09.01.2023 18:44 6,8 C 6,1 C 2,2 C 93 % 1005,0 hPa 0,0 l/m 0 min 2 min 0 W/m 12,9 km/h (3 Bft) 100,00 %
09.01.2023 18:46 6,8 C 6,1 C 2,2 C 93 % 1005,1 hPa 0,0 l/m 0 min 2 min 0 W/m 12,9 km/h (3 Bft) 98,11 %
09.01.2023 18:48 6,8 C 6,1 C 2,2 C 93 % 1005,1 hPa 0,0 l/m 0 min 2 min 0 W/m 12,9 km/h (3 Bft) 93,62 %
09.01.2023 18:50 6,7 C 6,1 C 2,2 C 93 % 1005,2 hPa 0,0 l/m 0 min 2 min 0 W/m 6,4 km/h (2 Bft) 100,00 %
09.01.2023 18:52 6,7 C 6,1 C 2,2 C 93 % 1005,3 hPa 0,2 l/m 0 min 2 min 0 W/m 9,7 km/h (2 Bft) 100,00 %
09.01.2023 18:54 6,7 C 6,1 C 2,2 C 93 % 1005,3 hPa 0,0 l/m 0 min 2 min 0 W/m 22,5 km/h (4 Bft) 97,14 %
09.01.2023 18:56 6,7 C 5,6 C 2,2 C 93 % 1005,3 hPa 0,2 l/m 0 min 2 min 0 W/m 16,1 km/h (3 Bft) 98,28 %
09.01.2023 18:58 6,6 C 5,6 C 2,2 C 93 % 1005,3 hPa 0,0 l/m 0 min 2 min 0 W/m 12,9 km/h (3 Bft) 100,00 %
09.01.2023 19:00 6,5 C 5,6 C 2,2 C 93 % 1005,4 hPa 0,0 l/m 0 min 0 min 0 W/m 6,4 km/h (2 Bft) 97,14 %
09.01.2023 19:02 6,5 C 5,6 C 2,2 C 93 % 1005,4 hPa 0,0 l/m 0 min 0 min 0 W/m 19,3 km/h (3 Bft) 100,00 %
09.01.2023 19:04 6,4 C 5,6 C 2,2 C 93 % 1005,5 hPa 0,0 l/m 0 min 0 min 0 W/m 6,4 km/h (2 Bft) 100,00 %
09.01.2023 19:06 6,4 C 5,6 C 2,2 C 93 % 1005,6 hPa 0,0 l/m 0 min 0 min 0 W/m 3,2 km/h (1 Bft) 97,83 %
09.01.2023 19:08 6,3 C 5,6 C 2,2 C 93 % 1005,5 hPa 0,0 l/m 0 min 0 min 0 W/m 12,9 km/h (3 Bft) 100,00 %
09.01.2023 19:10 6,3 C 5,0 C 1,7 C 93 % 1005,6 hPa 0,0 l/m 0 min 0 min 0 W/m 9,7 km/h (2 Bft) 100,00 %
09.01.2023 19:12 6,2 C 5,0 C 1,7 C 93 % 1005,7 hPa 0,0 l/m 0 min 0 min 0 W/m 6,4 km/h (2 Bft) 100,00 %
09.01.2023 19:14 6,2 C 5,0 C 1,7 C 93 % 1005,7 hPa 0,0 l/m 0 min 0 min 0 W/m 3,2 km/h (1 Bft) 100,00 %
09.01.2023 19:16 6,1 C 5,0 C 1,7 C 93 % 1005,6 hPa 0,0 l/m 0 min 0 min 0 W/m 3,2 km/h (1 Bft) 100,00 %
09.01.2023 19:18 6,1 C 5,0 C 1,7 C 93 % 1005,7 hPa 0,0 l/m 0 min 0 min 0 W/m 6,4 km/h (2 Bft) 100,00 %
09.01.2023 19:20 6,1 C 5,0 C 1,7 C 93 % 1005,7 hPa 0,0 l/m 0 min 0 min 0 W/m 3,2 km/h (1 Bft) 100,00 %
09.01.2023 19:22 6,1 C 5,0 C 1,7 C 93 % 1005,7 hPa 0,0 l/m 0 min 0 min 0 W/m 6,4 km/h (2 Bft) 100,00 %
09.01.2023 19:24 6,1 C 5,0 C 1,7 C 93 % 1005,8 hPa 0,0 l/m 0 min 0 min 0 W/m 16,1 km/h (3 Bft) 100,00 %
09.01.2023 19:26 6,0 C 5,0 C 1,7 C 93 % 1005,8 hPa 0,0 l/m 0 min 0 min 0 W/m 6,4 km/h (2 Bft) 100,00 %
09.01.2023 19:28 6,0 C 5,0 C 1,7 C 93 % 1005,9 hPa 0,0 l/m 0 min 0 min 0 W/m 12,9 km/h (3 Bft) 97,73 %
09.01.2023 19:30 6,1 C 5,0 C 1,7 C 93 % 1005,9 hPa 0,0 l/m 0 min 0 min 0 W/m 3,2 km/h (1 Bft) 100,00 %
09.01.2023 19:32 6,1 C 5,0 C 1,7 C 93 % 1006,0 hPa 0,0 l/m 0 min 0 min 0 W/m 12,9 km/h (3 Bft) 100,00 %
09.01.2023 19:34 6,0 C 5,0 C 1,7 C 93 % 1006,0 hPa 0,0 l/m 0 min 0 min 0 W/m 9,7 km/h (2 Bft) 97,87 %
09.01.2023 19:36 6,1 C 5,0 C 1,7 C 93 % 1006,1 hPa 0,0 l/m 0 min 0 min 0 W/m 3,2 km/h (1 Bft) 100,00 %
09.01.2023 19:38 6,1 C 5,0 C 1,7 C 94 % 1006,1 hPa 0,0 l/m 0 min 0 min 0 W/m 12,9 km/h (3 Bft) 100,00 %
09.01.2023 19:40 6,1 C 5,0 C 1,7 C 94 % 1006,1 hPa 0,0 l/m 0 min 0 min 0 W/m 9,7 km/h (2 Bft) 97,87 %
09.01.2023 19:42 6,1 C 5,0 C 1,7 C 94 % 1006,1 hPa 0,2 l/m 0 min 0 min 0 W/m 6,4 km/h (2 Bft) 100,00 %
09.01.2023 19:44 6,1 C 5,0 C 2,2 C 94 % 1006,2 hPa 0,0 l/m 0 min 0 min 0 W/m 9,7 km/h (2 Bft) 95,74 %
09.01.2023 19:46 6,1 C 5,6 C 2,2 C 94 % 1006,2 hPa 0,0 l/m 0 min 0 min 0 W/m 12,9 km/h (3 Bft) 100,00 %
09.01.2023 19:48 6,1 C 5,6 C 2,2 C 94 % 1006,3 hPa 0,0 l/m 0 min 0 min 0 W/m 12,9 km/h (3 Bft) 95,74 %
09.01.2023 19:50 6,1 C 5,6 C 2,2 C 94 % 1006,3 hPa 0,0 l/m 0 min 0 min 0 W/m 9,7 km/h (2 Bft) 97,83 %
09.01.2023 19:52 6,2 C 5,6 C 2,2 C 94 % 1006,4 hPa 0,0 l/m 0 min 0 min 0 W/m 6,4 km/h (2 Bft) 95,74 %
09.01.2023 19:54 6,2 C 5,6 C 2,2 C 94 % 1006,5 hPa 0,0 l/m 0 min 2 min 0 W/m 6,4 km/h (2 Bft) 95,74 %
09.01.2023 19:56 6,2 C 5,6 C 2,2 C 94 % 1006,5 hPa 0,0 l/m 0 min 2 min 0 W/m 6,4 km/h (2 Bft) 93,62 %
09.01.2023 19:58 6,3 C 5,6 C 2,2 C 94 % 1006,5 hPa 0,0 l/m 0 min 2 min 0 W/m 12,9 km/h (3 Bft) 93,62 %
09.01.2023 20:00 6,3 C 5,6 C 2,2 C 94 % 1006,5 hPa 0,0 l/m 0 min 2 min 0 W/m 16,1 km/h (3 Bft) 93,62 %
09.01.2023 20:02 6,3 C 5,6 C 2,2 C 94 % 1006,6 hPa 0,0 l/m 0 min 2 min 0 W/m 16,1 km/h (3 Bft) 91,49 %
09.01.2023 20:04 6,3 C 5,6 C 2,2 C 94 % 1006,6 hPa 0,0 l/m 0 min 2 min 0 W/m 12,9 km/h (3 Bft) 95,65 %
09.01.2023 20:06 6,4 C 5,6 C 2,2 C 94 % 1006,7 hPa 0,0 l/m 0 min 0 min 0 W/m 12,9 km/h (3 Bft) 96,61 %
09.01.2023 20:08 6,4 C 5,6 C 2,2 C 94 % 1006,6 hPa 0,0 l/m 0 min 2 min 0 W/m 16,1 km/h (3 Bft) 91,43 %
09.01.2023 20:10 6,4 C 5,6 C 2,2 C 94 % 1006,6 hPa 0,0 l/m 0 min 2 min 0 W/m 12,9 km/h (3 Bft) 91,49 %
09.01.2023 20:12 6,4 C 5,6 C 2,2 C 94 % 1006,6 hPa 0,0 l/m 0 min 2 min 0 W/m 12,9 km/h (3 Bft) 93,62 %
09.01.2023 20:14 6,4 C 5,6 C 2,2 C 94 % 1006,7 hPa 0,0 l/m 0 min 2 min 0 W/m 19,3 km/h (3 Bft) 91,49 %
09.01.2023 20:16 6,4 C 5,6 C 2,2 C 94 % 1006,7 hPa 0,0 l/m 0 min 2 min 0 W/m 19,3 km/h (3 Bft) 93,48 %
09.01.2023 20:18 6,4 C 5,6 C 2,2 C 95 % 1006,8 hPa 0,0 l/m 0 min 2 min 0 W/m 25,7 km/h (4 Bft) 91,49 %
09.01.2023 20:20 6,4 C 5,6 C 2,2 C 95 % 1006,8 hPa 0,0 l/m 0 min 2 min 0 W/m 12,9 km/h (3 Bft) 91,49 %
09.01.2023 20:22 6,4 C 5,6 C 2,2 C 95 % 1006,9 hPa 0,0 l/m 0 min 2 min 0 W/m 12,9 km/h (3 Bft) 93,62 %
09.01.2023 20:24 6,4 C 5,6 C 2,2 C 95 % 1006,9 hPa 0,0 l/m 0 min 0 min 0 W/m 12,9 km/h (3 Bft) 93,62 %
09.01.2023 20:26 6,4 C 5,6 C 2,2 C 95 % 1006,9 hPa 0,0 l/m 0 min 2 min 0 W/m 19,3 km/h (3 Bft) 93,62 %
09.01.2023 20:28 6,4 C 5,6 C 2,2 C 95 % 1007,0 hPa 0,0 l/m 0 min 2 min 0 W/m 12,9 km/h (3 Bft) 93,62 %
09.01.2023 20:30 6,4 C 5,6 C 2,2 C 95 % 1007,0 hPa 0,0 l/m 0 min 2 min 0 W/m 16,1 km/h (3 Bft) 91,30 %
09.01.2023 20:32 6,4 C 5,6 C 2,2 C 95 % 1007,0 hPa 0,0 l/m 0 min 0 min 0 W/m 6,4 km/h (2 Bft) 93,62 %
09.01.2023 20:34 6,4 C 5,6 C 2,2 C 95 % 1007,1 hPa 0,0 l/m 0 min 0 min 0 W/m 16,1 km/h (3 Bft) 97,87 %
09.01.2023 20:36 6,4 C 5,6 C 2,2 C 95 % 1007,2 hPa 0,0 l/m 0 min 0 min 0 W/m 9,7 km/h (2 Bft) 93,62 %
09.01.2023 20:38 6,4 C 5,6 C 2,8 C 95 % 1007,2 hPa 0,0 l/m 0 min 0 min 0 W/m 9,7 km/h (2 Bft) 97,87 %
09.01.2023 20:40 6,4 C 5,6 C 2,2 C 95 % 1007,1 hPa 0,0 l/m 0 min 0 min 0 W/m 6,4 km/h (2 Bft) 97,87 %
09.01.2023 20:42 6,4 C 5,6 C 2,2 C 95 % 1007,2 hPa 0,0 l/m 0 min 0 min 0 W/m 9,7 km/h (2 Bft) 97,87 %
09.01.2023 20:44 6,4 C 5,6 C 2,2 C 95 % 1007,3 hPa 0,0 l/m 0 min 0 min 0 W/m 12,9 km/h (3 Bft) 97,83 %
09.01.2023 20:46 6,4 C 5,6 C 2,2 C 95 % 1007,3 hPa 0,0 l/m 0 min 0 min 0 W/m 12,9 km/h (3 Bft) 100,00 %
09.01.2023 20:48 6,4 C 5,6 C 2,8 C 95 % 1007,4 hPa 0,0 l/m 0 min 0 min 0 W/m 9,7 km/h (2 Bft) 100,00 %
09.01.2023 20:50 6,4 C 5,6 C 2,2 C 95 % 1007,4 hPa 0,0 l/m 0 min 0 min 0 W/m 12,9 km/h (3 Bft) 100,00 %
09.01.2023 20:52 6,4 C 5,6 C 2,2 C 95 % 1007,5 hPa 0,0 l/m 0 min 0 min 0 W/m 16,1 km/h (3 Bft) 97,87 %
09.01.2023 20:54 6,4 C 5,6 C 2,2 C 95 % 1007,5 hPa 0,0 l/m 0 min 0 min 0 W/m 9,7 km/h (2 Bft) 97,87 %
09.01.2023 20:56 6,4 C 6,1 C 2,2 C 95 % 1007,5 hPa 0,0 l/m 0 min 0 min 0 W/m 12,9 km/h (3 Bft) 100,00 %
09.01.2023 20:58 6,4 C 6,1 C 2,8 C 95 % 1007,6 hPa 0,0 l/m 0 min 0 min 0 W/m 12,9 km/h (3 Bft) 100,00 %
09.01.2023 21:00 6,5 C 6,1 C 2,2 C 95 % 1007,6 hPa 0,0 l/m 0 min 0 min 0 W/m 9,7 km/h (2 Bft) 100,00 %
09.01.2023 21:02 6,4 C 5,6 C 2,2 C 95 % 1007,6 hPa 0,0 l/m 0 min 0 min 0 W/m 19,3 km/h (3 Bft) 97,87 %
09.01.2023 21:04 6,4 C 5,6 C 2,2 C 95 % 1007,6 hPa 0,0 l/m 0 min 0 min 0 W/m 16,1 km/h (3 Bft) 100,00 %
09.01.2023 21:06 6,4 C 5,6 C 2,2 C 95 % 1007,7 hPa 0,0 l/m 0 min 0 min 0 W/m 12,9 km/h (3 Bft) 100,00 %
09.01.2023 21:08 6,4 C 5,6 C 2,2 C 95 % 1007,7 hPa 0,0 l/m 0 min 0 min 0 W/m 12,9 km/h (3 Bft) 100,00 %
09.01.2023 21:10 6,4 C 5,6 C 2,2 C 95 % 1007,8 hPa 0,0 l/m 0 min 0 min 0 W/m 16,1 km/h (3 Bft) 100,00 %
09.01.2023 21:12 6,3 C 5,6 C 2,2 C 95 % 1007,8 hPa 0,0 l/m 0 min 0 min 0 W/m 16,1 km/h (3 Bft) 100,00 %
09.01.2023 21:14 6,3 C 5,6 C 2,2 C 95 % 1007,8 hPa 0,0 l/m 0 min 0 min 0 W/m 9,7 km/h (2 Bft) 100,00 %
09.01.2023 21:16 6,3 C 5,6 C 2,2 C 95 % 1007,8 hPa 0,0 l/m 0 min 0 min 0 W/m 12,9 km/h (3 Bft) 100,00 %
09.01.2023 21:18 6,3 C 5,6 C 2,2 C 95 % 1007,9 hPa 0,0 l/m 0 min 0 min 0 W/m 12,9 km/h (3 Bft) 100,00 %
09.01.2023 21:20 6,2 C 5,6 C 2,2 C 95 % 1007,9 hPa 0,0 l/m 0 min 0 min 0 W/m 12,9 km/h (3 Bft) 100,00 %
09.01.2023 21:22 6,2 C 5,6 C 2,2 C 95 % 1008,0 hPa 0,0 l/m 0 min 0 min 0 W/m 12,9 km/h (3 Bft) 100,00 %
09.01.2023 21:24 6,2 C 5,6 C 2,2 C 95 % 1008,0 hPa 0,0 l/m 0 min 0 min 0 W/m 12,9 km/h (3 Bft) 100,00 %
09.01.2023 21:26 6,2 C 5,6 C 2,2 C 95 % 1008,1 hPa 0,0 l/m 0 min 0 min 0 W/m 16,1 km/h (3 Bft) 100,00 %
09.01.2023 21:28 6,2 C 5,6 C 2,2 C 95 % 1008,2 hPa 0,0 l/m 0 min 0 min 0 W/m 9,7 km/h (2 Bft) 100,00 %
09.01.2023 21:30 6,2 C 5,6 C 2,2 C 95 % 1008,2 hPa 0,0 l/m 0 min 0 min 0 W/m 6,4 km/h (2 Bft) 100,00 %
09.01.2023 21:32 6,2 C 5,6 C 2,2 C 95 % 1008,3 hPa 0,0 l/m 0 min 0 min 0 W/m 12,9 km/h (3 Bft) 100,00 %
09.01.2023 21:34 6,2 C 5,6 C 2,2 C 95 % 1008,3 hPa 0,0 l/m 0 min 0 min 0 W/m 12,9 km/h (3 Bft) 100,00 %
09.01.2023 21:36 6,2 C 5,6 C 2,2 C 95 % 1008,4 hPa 0,0 l/m 0 min 0 min 0 W/m 16,1 km/h (3 Bft) 100,00 %
09.01.2023 21:38 6,2 C 5,6 C 2,2 C 95 % 1008,4 hPa 0,0 l/m 0 min 0 min 0 W/m 16,1 km/h (3 Bft) 100,00 %
09.01.2023 21:40 6,1 C 5,6 C 2,2 C 95 % 1008,5 hPa 0,0 l/m 0 min 0 min 0 W/m 12,9 km/h (3 Bft) 100,00 %
09.01.2023 21:42 6,1 C 5,6 C 2,2 C 95 % 1008,5 hPa 0,0 l/m 0 min 0 min 0 W/m 16,1 km/h (3 Bft) 100,00 %
09.01.2023 21:44 6,1 C 5,6 C 2,2 C 95 % 1008,6 hPa 0,0 l/m 0 min 0 min 0 W/m 9,7 km/h (2 Bft) 97,87 %
09.01.2023 21:46 6,1 C 5,6 C 2,2 C 95 % 1008,6 hPa 0,0 l/m 0 min 0 min 0 W/m 16,1 km/h (3 Bft) 97,87 %
09.01.2023 21:48 6,1 C 5,6 C 2,2 C 95 % 1008,7 hPa 0,0 l/m 0 min 0 min 0 W/m 12,9 km/h (3 Bft) 100,00 %
09.01.2023 21:50 6,1 C 5,6 C 2,2 C 95 % 1008,7 hPa 0,0 l/m 0 min 0 min 0 W/m 9,7 km/h (2 Bft) 97,83 %
09.01.2023 21:52 6,1 C 5,6 C 2,2 C 95 % 1008,8 hPa 0,0 l/m 0 min 0 min 0 W/m 12,9 km/h (3 Bft) 97,87 %
09.01.2023 21:54 6,0 C 5,6 C 2,2 C 95 % 1008,8 hPa 0,0 l/m 0 min 0 min 0 W/m 9,7 km/h (2 Bft) 95,74 %
09.01.2023 21:56 6,0 C 5,6 C 2,2 C 94 % 1008,8 hPa 0,0 l/m 0 min 0 min 0 W/m 9,7 km/h (2 Bft) 97,87 %
09.01.2023 21:58 6,0 C 5,6 C 2,2 C 94 % 1008,9 hPa 0,0 l/m 0 min 0 min 0 W/m 12,9 km/h (3 Bft) 97,87 %
09.01.2023 22:00 6,1 C 5,6 C 2,2 C 94 % 1008,9 hPa 0,0 l/m 0 min 0 min 0 W/m 9,7 km/h (2 Bft) 97,87 %
09.01.2023 22:02 6,1 C 5,6 C 2,2 C 94 % 1009,0 hPa 0,0 l/m 0 min 0 min 0 W/m 22,5 km/h (4 Bft) 93,62 %
09.01.2023 22:04 6,1 C 5,6 C 2,2 C 94 % 1009,0 hPa 0,0 l/m 0 min 0 min 0 W/m 12,9 km/h (3 Bft) 97,83 %
09.01.2023 22:06 6,1 C 5,6 C 2,2 C 94 % 1009,1 hPa 0,0 l/m 0 min 0 min 0 W/m 16,1 km/h (3 Bft) 97,96 %
09.01.2023 22:08 6,1 C 5,6 C 2,2 C 94 % 1009,2 hPa 0,0 l/m 0 min 0 min 0 W/m 25,7 km/h (4 Bft) 97,87 %
09.01.2023 22:10 6,0 C 5,6 C 2,2 C 94 % 1009,1 hPa 0,0 l/m 0 min 0 min 0 W/m 12,9 km/h (3 Bft) 93,62 %
09.01.2023 22:12 6,0 C 5,6 C 2,2 C 94 % 1009,2 hPa 0,0 l/m 0 min 0 min 0 W/m 16,1 km/h (3 Bft) 97,87 %
09.01.2023 22:14 6,1 C 5,6 C 2,2 C 94 % 1009,2 hPa 0,0 l/m 0 min 0 min 0 W/m 16,1 km/h (3 Bft) 95,74 %
09.01.2023 22:16 6,1 C 5,6 C 2,2 C 94 % 1009,2 hPa 0,0 l/m 0 min 0 min 0 W/m 6,4 km/h (2 Bft) 95,74 %
09.01.2023 22:18 6,1 C 5,6 C 2,2 C 94 % 1009,2 hPa 0,0 l/m 0 min 0 min 0 W/m 9,7 km/h (2 Bft) 97,87 %
09.01.2023 22:20 6,1 C 5,6 C 2,2 C 94 % 1009,3 hPa 0,0 l/m 0 min 0 min 0 W/m 12,9 km/h (3 Bft) 97,87 %
09.01.2023 22:22 6,1 C 5,6 C 2,2 C 94 % 1009,3 hPa 0,0 l/m 0 min 0 min 0 W/m 16,1 km/h (3 Bft) 97,83 %
09.01.2023 22:24 6,1 C 5,6 C 2,2 C 94 % 1009,4 hPa 0,0 l/m 0 min 0 min 0 W/m 6,4 km/h (2 Bft) 95,74 %
09.01.2023 22:26 6,1 C 5,6 C 2,2 C 94 % 1009,4 hPa 0,0 l/m 0 min 0 min 0 W/m 12,9 km/h (3 Bft) 95,74 %
09.01.2023 22:28 6,1 C 5,6 C 2,2 C 94 % 1009,5 hPa 0,0 l/m 0 min 0 min 0 W/m 9,7 km/h (2 Bft) 97,87 %
09.01.2023 22:30 6,1 C 5,6 C 2,2 C 94 % 1009,5 hPa 0,0 l/m 0 min 0 min 0 W/m 6,4 km/h (2 Bft) 97,87 %
09.01.2023 22:32 6,1 C 5,6 C 2,2 C 94 % 1009,6 hPa 0,0 l/m 0 min 0 min 0 W/m 9,7 km/h (2 Bft) 95,74 %
09.01.2023 22:34 6,1 C 5,6 C 2,2 C 94 % 1009,6 hPa 0,0 l/m 0 min 0 min 0 W/m 12,9 km/h (3 Bft) 95,65 %
09.01.2023 22:36 6,1 C 5,6 C 2,2 C 94 % 1009,7 hPa 0,0 l/m 0 min 0 min 0 W/m 12,9 km/h (3 Bft) 95,74 %
09.01.2023 22:38 6,1 C 5,6 C 2,2 C 94 % 1009,7 hPa 0,0 l/m 0 min 0 min 0 W/m 6,4 km/h (2 Bft) 97,87 %
09.01.2023 22:40 6,1 C 5,6 C 2,2 C 94 % 1009,8 hPa 0,0 l/m 0 min 0 min 0 W/m 6,4 km/h (2 Bft) 97,87 %
09.01.2023 22:42 6,1 C 5,6 C 2,2 C 94 % 1009,8 hPa 0,0 l/m 0 min 0 min 0 W/m 6,4 km/h (2 Bft) 97,87 %
09.01.2023 22:44 6,1 C 5,6 C 2,2 C 94 % 1009,8 hPa 0,0 l/m 0 min 0 min 0 W/m 3,2 km/h (1 Bft) 97,87 %
09.01.2023 22:46 6,1 C 5,6 C 2,2 C 94 % 1009,9 hPa 0,0 l/m 0 min 0 min 0 W/m 16,1 km/h (3 Bft) 97,83 %
09.01.2023 22:48 6,1 C 5,6 C 2,2 C 93 % 1009,9 hPa 0,0 l/m 0 min 0 min 0 W/m 3,2 km/h (1 Bft) 97,87 %
09.01.2023 22:50 6,1 C 5,6 C 2,2 C 93 % 1009,9 hPa 0,0 l/m 0 min 0 min 0 W/m 6,4 km/h (2 Bft) 97,87 %
09.01.2023 22:52 6,1 C 5,6 C 2,2 C 93 % 1010,0 hPa 0,0 l/m 0 min 0 min 0 W/m 3,2 km/h (1 Bft) 95,74 %
09.01.2023 22:54 6,1 C 5,6 C 2,2 C 93 % 1010,0 hPa 0,0 l/m 0 min 0 min 0 W/m 6,4 km/h (2 Bft) 97,87 %
09.01.2023 22:56 6,0 C 5,0 C 2,2 C 94 % 1010,0 hPa 0,0 l/m 0 min 0 min 0 W/m 6,4 km/h (2 Bft) 97,87 %
09.01.2023 22:58 6,0 C 5,0 C 2,2 C 94 % 1010,0 hPa 0,0 l/m 0 min 0 min 0 W/m 6,4 km/h (2 Bft) 100,00 %
09.01.2023 23:00 6,0 C 5,0 C 2,2 C 94 % 1010,1 hPa 0,0 l/m 0 min 0 min 0 W/m 6,4 km/h (2 Bft) 100,00 %
09.01.2023 23:02 5,9 C 5,0 C 2,2 C 94 % 1010,1 hPa 0,0 l/m 0 min 0 min 0 W/m 6,4 km/h (2 Bft) 100,00 %
09.01.2023 23:04 5,9 C 5,0 C 1,7 C 94 % 1010,2 hPa 0,0 l/m 0 min 0 min 0 W/m 3,2 km/h (1 Bft) 100,00 %
09.01.2023 23:06 5,9 C 5,0 C 1,7 C 94 % 1010,2 hPa 0,0 l/m 0 min 0 min 0 W/m 16,1 km/h (3 Bft) 97,87 %
09.01.2023 23:08 5,9 C 5,0 C 1,7 C 94 % 1010,2 hPa 0,0 l/m 0 min 0 min 0 W/m 12,9 km/h (3 Bft) 100,00 %
09.01.2023 23:10 5,9 C 5,0 C 1,7 C 94 % 1010,2 hPa 0,0 l/m 0 min 0 min 0 W/m 9,7 km/h (2 Bft) 97,87 %
09.01.2023 23:12 5,9 C 5,0 C 1,7 C 94 % 1010,3 hPa 0,0 l/m 0 min 0 min 0 W/m 12,9 km/h (3 Bft) 97,87 %
09.01.2023 23:14 5,9 C 5,0 C 1,7 C 94 % 1010,3 hPa 0,0 l/m 0 min 0 min 0 W/m 9,7 km/h (2 Bft) 97,83 %
09.01.2023 23:16 5,8 C 5,0 C 1,7 C 94 % 1010,3 hPa 0,0 l/m 0 min 0 min 0 W/m 16,1 km/h (3 Bft) 95,74 %
09.01.2023 23:18 5,8 C 5,0 C 1,7 C 94 % 1010,3 hPa 0,0 l/m 0 min 0 min 0 W/m 16,1 km/h (3 Bft) 97,87 %
09.01.2023 23:20 5,8 C 5,0 C 1,7 C 94 % 1010,4 hPa 0,0 l/m 0 min 0 min 0 W/m 16,1 km/h (3 Bft) 97,87 %
09.01.2023 23:22 5,8 C 5,0 C 1,7 C 94 % 1010,4 hPa 0,0 l/m 0 min 0 min 0 W/m 9,7 km/h (2 Bft) 95,74 %
09.01.2023 23:24 5,8 C 5,0 C 1,7 C 94 % 1010,4 hPa 0,0 l/m 0 min 0 min 0 W/m 12,9 km/h (3 Bft) 97,87 %
09.01.2023 23:26 5,8 C 5,0 C 1,7 C 94 % 1010,5 hPa 0,0 l/m 0 min 0 min 0 W/m 6,4 km/h (2 Bft) 97,87 %
09.01.2023 23:28 5,7 C 5,0 C 1,7 C 94 % 1010,6 hPa 0,0 l/m 0 min 0 min 0 W/m 12,9 km/h (3 Bft) 97,83 %
09.01.2023 23:30 5,7 C 5,0 C 1,7 C 94 % 1010,6 hPa 0,0 l/m 0 min 0 min 0 W/m 12,9 km/h (3 Bft) 97,87 %
09.01.2023 23:32 5,7 C 5,0 C 1,7 C 94 % 1010,6 hPa 0,0 l/m 0 min 0 min 0 W/m 16,1 km/h (3 Bft) 95,74 %
09.01.2023 23:34 5,7 C 5,0 C 1,7 C 94 % 1010,6 hPa 0,0 l/m 0 min 0 min 0 W/m 12,9 km/h (3 Bft) 95,74 %
09.01.2023 23:36 5,6 C 5,0 C 1,7 C 94 % 1010,7 hPa 0,0 l/m 0 min 0 min 0 W/m 16,1 km/h (3 Bft) 97,87 %
09.01.2023 23:38 5,6 C 5,0 C 1,7 C 94 % 1010,7 hPa 0,0 l/m 0 min 0 min 0 W/m 12,9 km/h (3 Bft) 93,62 %
09.01.2023 23:40 5,6 C 5,0 C 1,7 C 94 % 1010,7 hPa 0,0 l/m 0 min 0 min 0 W/m 6,4 km/h (2 Bft) 93,62 %
09.01.2023 23:42 5,6 C 5,0 C 1,7 C 94 % 1010,8 hPa 0,0 l/m 0 min 0 min 0 W/m 12,9 km/h (3 Bft) 95,65 %
09.01.2023 23:44 5,6 C 4,4 C 1,7 C 94 % 1010,9 hPa 0,0 l/m 0 min 0 min 0 W/m 12,9 km/h (3 Bft) 89,36 %
09.01.2023 23:46 5,5 C 4,4 C 1,7 C 94 % 1011,0 hPa 0,0 l/m 0 min 0 min 0 W/m 12,9 km/h (3 Bft) 93,62 %
09.01.2023 23:48 5,5 C 5,0 C 1,7 C 94 % 1011,0 hPa 0,0 l/m 0 min 0 min 0 W/m 9,7 km/h (2 Bft) 95,74 %
09.01.2023 23:50 5,5 C 5,0 C 1,7 C 94 % 1011,1 hPa 0,0 l/m 0 min 0 min 0 W/m 12,9 km/h (3 Bft) 95,74 %
09.01.2023 23:52 5,5 C 5,0 C 1,7 C 94 % 1011,1 hPa 0,0 l/m 0 min 0 min 0 W/m 12,9 km/h (3 Bft) 95,74 %
09.01.2023 23:54 5,5 C 4,4 C 1,7 C 94 % 1011,2 hPa 0,0 l/m 0 min 0 min 0 W/m 16,1 km/h (3 Bft) 95,74 %
09.01.2023 23:56 5,4 C 4,4 C 1,7 C 94 % 1011,2 hPa 0,0 l/m 0 min 0 min 0 W/m 12,9 km/h (3 Bft) 95,65 %
09.01.2023 23:58 5,5 C 5,0 C 1,7 C 94 % 1011,2 hPa 0,0 l/m 0 min 0 min 0 W/m 6,4 km/h (2 Bft) 91,49 %
_ Min-Zeit 23:56 23:44 05:14 12:30 00:00 - - - - 00:22 01:30
Minimum _ 5,4 C 4,4 C 1,7 C 84 % 994,6 hPa - - - - 3,2 km/h (1 Bft) 50,00 %
_ Max-Zeit 12:00 12:08 12:08 00:46 23:54 00:12 13:34 00:12 13:34 12:30 00:08
Maximum _ 8,3 C 8,3 C 5,0 C 95 % 1011,2 hPa 0,2 l/m 2 min 4 min 166 W/m 51,5 km/h
S-SW (7 Bft)
100,00 %
Durchschnitt _ 7,1 C 6,4 C 3,1 C 91 % 1000,5 hPa #3,6 l/m #2 min. #4:42 h 48 W/m 17,3 km/h (3 Bft) 96,94 %
© 2023 W. Hausmann